DB0MGN-WX Weather Reports


time (UTC)temp
C
wind
direction
speed
KPH
gust
KPH
rain 1hr
cm
rain 24hr
cm
rain mn
cm
humidity
%
barometer
mb
20260507062416 8 72 4.8 0.0 0.00 0.00 0.00 96 1010.4
20260507062316 8 137 1.6 0.0 0.00 0.00 0.00 96 1010.5
20260507062216 8 233 3.2 0.0 0.00 0.00 0.00 96 1010.5
20260507062116 8 250 3.2 0.0 0.00 0.00 0.00 96 1010.4
20260507062016 8 131 3.2 0.0 0.00 0.00 0.00 96 1010.5
20260507061916 8 199 3.2 0.0 0.00 0.00 0.00 96 1010.4
20260507061816 8 163 3.2 0.0 0.00 0.00 0.00 96 1010.4
20260507061716 8 122 1.6 0.0 0.00 0.00 0.00 96 1010.4
20260507061616 8 284 3.2 0.0 0.00 0.00 0.00 96 1010.3
20260507061516 8 57 1.6 0.0 0.00 0.00 0.00 96 1010.3
20260507061416 8 203 3.2 0.0 0.00 0.00 0.00 97 1010.4
20260507061316 8 186 3.2 0.0 0.00 0.00 0.00 96 1010.3
20260507061216 8 72 1.6 0.0 0.00 0.00 0.00 97 1010.4
20260507061116 8 207 3.2 0.0 0.00 0.00 0.00 97 1010.3
20260507061016 8 336 3.2 0.0 0.00 0.00 0.00 97 1010.3
20260507060915 8 295 3.2 0.0 0.00 0.00 0.00 97 1010.3
20260507060815 8 259 4.8 0.0 0.00 0.00 0.00 97 1010.3
20260507060715 8 248 1.6 0.0 0.00 0.00 0.00 97 1010.4
20260507060615 8 211 3.2 0.0 0.00 0.00 0.00 97 1010.2
20260507060515 8 233 3.2 0.0 0.00 0.00 0.00 97 1010.2
20260507060415 8 274 1.6 0.0 0.00 0.00 0.00 97 1010.3
20260507060315 8 62 3.2 0.0 0.00 0.00 0.00 97 1010.2
20260507060215 8 310 3.2 0.0 0.00 0.00 0.00 97 1010.2
20260507060115 8 154 1.6 0.0 0.00 0.00 0.00 97 1010.2
20260507060015 8 98 3.2 0.0 0.00 0.00 0.00 97 1010.2
20260507055915 8 262 3.2 0.0 0.00 0.00 0.00 97 1010.2
20260507055815 8 190 1.6 0.0 0.00 0.00 0.00 96 1010.2
20260507055715 8 129 3.2 0.0 0.00 0.00 0.00 96 1010.1
20260507055615 8 170 3.2 0.0 0.00 0.00 0.00 96 1010.2
20260507055515 8 111 1.6 0.0 0.00 0.00 0.00 96 1010.0
20260507055415 8 119 3.2 0.0 0.00 0.00 0.00 97 1010.2
20260507055314 8 76 3.2 0.0 0.00 0.00 0.00 96 1010.2
20260507055215 8 103 1.6 0.0 0.00 0.00 0.00 96 1010.2
20260507055114 8 154 3.2 0.0 0.00 0.00 0.00 96 1010.2
20260507055014 8 106 3.2 0.0 0.00 0.00 0.00 97 1010.1
20260507054914 8 293 3.2 0.0 0.00 0.00 0.00 96 1010.1
20260507054814 8 157 4.8 0.0 0.00 0.00 0.00 96 1010.1
20260507054714 8 41 3.2 0.0 0.00 0.00 0.00 96 1010.0
20260507054614 8 188 6.4 0.0 0.00 0.00 0.00 96 1010.1
20260507054514 8 197 3.2 0.0 0.00 0.00 0.00 96 1010.1
20260507054414 8 146 3.2 0.0 0.00 0.00 0.00 96 1010.0
20260507054314 8 80 4.8 0.0 0.00 0.00 0.00 96 1009.9
20260507054214 8 235 4.8 0.0 0.00 0.00 0.00 96 1010.0
20260507054114 8 351 6.4 0.0 0.00 0.00 0.00 96 1010.0
20260507054014 8 338 4.8 0.0 0.00 0.00 0.00 96 1010.0
20260507053914 8 25 6.4 0.0 0.00 0.00 0.00 96 1009.9
20260507053814 8 14 4.8 0.0 0.00 0.00 0.00 96 1009.9
20260507053714 8 34 6.4 0.0 0.00 0.00 0.00 96 1010.0
20260507053613 8 30 1.6 0.0 0.00 0.00 0.00 96 1009.9
20260507053513 8 16 4.8 0.0 0.00 0.00 0.00 96 1010.0
20260507053413 8 31 6.4 0.0 0.00 0.00 0.00 96 1009.9
20260507053313 8 49 4.8 0.0 0.00 0.00 0.00 96 1009.9
20260507053213 8 95 4.8 0.0 0.00 0.00 0.00 96 1009.9
20260507053113 8 318 4.8 0.0 0.00 0.00 0.00 96 1009.9
20260507053013 8 254 1.6 0.0 0.00 0.00 0.00 96 1009.8
20260507052913 8 231 6.4 0.0 0.00 0.00 0.00 96 1009.8
20260507052813 8 124 3.2 0.0 0.00 0.00 0.00 96 1009.8
20260507052713 8 120 3.2 0.0 0.00 0.00 0.00 96 1009.8
20260507052613 8 172 4.8 0.0 0.00 0.00 0.00 96 1009.7
20260507052513 8 70 4.8 0.0 0.00 0.00 0.00 96 1009.7
20260507052413 8 93 3.2 0.0 0.00 0.00 0.00 96 1009.7
20260507052313 8 133 1.6 0.0 0.00 0.00 0.00 96 1009.7
20260507052213 8 95 3.2 0.0 0.00 0.00 0.00 96 1009.7
20260507052113 8 134 4.8 0.0 0.00 0.00 0.00 96 1009.7
20260507052012 8 44 1.6 0.0 0.00 0.00 0.00 96 1009.7
20260507051912 8 214 3.2 0.0 0.00 0.00 0.00 96 1009.7
20260507051812 8 97 3.2 0.0 0.00 0.00 0.00 96 1009.8
20260507051712 8 113 1.6 0.0 0.00 0.00 0.00 96 1009.8
20260507051612 8 286 3.2 0.0 0.00 0.00 0.00 96 1009.8
20260507051512 8 336 3.2 0.0 0.00 0.00 0.00 96 1009.8
20260507051412 8 307 3.2 0.0 0.00 0.00 0.00 96 1009.8
20260507051312 8 108 3.2 0.0 0.00 0.00 0.00 96 1009.8
20260507051212 8 323 3.2 0.0 0.00 0.00 0.00 96 1009.8
20260507051112 8 97 4.8 0.0 0.00 0.00 0.00 96 1009.7
20260507051012 8 189 1.6 0.0 0.00 0.00 0.00 96 1009.7
20260507050912 8 196 1.6 0.0 0.00 0.00 0.00 96 1009.8
20260507050812 8 4 4.8 0.0 0.00 0.00 0.00 96 1009.7
20260507050712 8 327 3.2 0.0 0.00 0.00 0.00 96 1009.7
20260507050612 8 249 4.8 0.0 0.00 0.00 0.00 96 1009.6
20260507050512 8 188 3.2 0.0 0.00 0.00 0.00 96 1009.7
20260507050412 8 236 3.2 0.0 0.00 0.00 0.00 96 1009.5
20260507050311 8 107 3.2 0.0 0.00 0.00 0.00 96 1009.6
20260507050211 8 97 3.2 0.0 0.00 0.00 0.00 96 1009.6
20260507050111 8 247 3.2 0.0 0.00 0.00 0.00 96 1009.6
20260507050011 8 148 4.8 0.0 0.00 0.00 0.00 96 1009.4
20260507045911 8 85 3.2 0.0 0.00 0.00 0.00 96 1009.6
20260507045811 8 133 3.2 0.0 0.00 0.00 0.00 96 1009.6
20260507045711 8 126 4.8 0.0 0.00 0.00 0.00 96 1009.5
20260507045611 8 208 3.2 0.0 0.00 0.00 0.00 96 1009.6
20260507045511 8 53 3.2 0.0 0.00 0.00 0.00 96 1009.6
20260507045411 8 286 4.8 0.0 0.00 0.00 0.00 96 1009.4
20260507045311 8 127 3.2 0.0 0.00 0.00 0.00 96 1009.4
20260507045211 8 100 3.2 0.0 0.00 0.00 0.00 96 1009.4
20260507045111 8 62 4.8 0.0 0.00 0.00 0.00 96 1009.4
20260507045011 8 172 4.8 0.0 0.00 0.00 0.00 96 1009.4
20260507044911 8 106 4.8 0.0 0.00 0.00 0.00 97 1009.5
20260507044811 8 193 4.8 0.0 0.00 0.00 0.00 96 1009.5
20260507044711 8 192 3.2 0.0 0.00 0.00 0.00 96 1009.5
20260507044610 8 277 4.8 0.0 0.00 0.00 0.00 96 1009.5
20260507044510 8 139 3.2 0.0 0.00 0.00 0.00 96 1009.3
20260507044410 8 108 3.2 0.0 0.00 0.00 0.00 96 1009.5
20260507044310 8 135 3.2 0.0 0.00 0.00 0.00 96 1009.3
20260507044210 8 186 4.8 0.0 0.00 0.00 0.00 96 1009.5
20260507044110 8 141 3.2 0.0 0.00 0.00 0.00 96 1009.4
20260507044010 8 49 1.6 0.0 0.00 0.00 0.00 96 1009.3
20260507043910 8 89 1.6 0.0 0.00 0.00 0.00 96 1009.4
20260507043810 8 238 6.4 0.0 0.00 0.00 0.00 96 1009.3
20260507043710 8 164 4.8 0.0 0.00 0.00 0.00 96 1009.3
20260507043610 8 130 4.8 0.0 0.00 0.00 0.00 96 1009.3
20260507043510 8 172 4.8 0.0 0.00 0.00 0.00 96 1009.3
20260507043410 8 194 3.2 0.0 0.00 0.00 0.00 96 1009.3
20260507043310 8 226 3.2 0.0 0.00 0.00 0.00 96 1009.2
20260507043210 8 197 4.8 0.0 0.00 0.00 0.00 96 1009.2
20260507043110 8 95 4.8 0.0 0.00 0.00 0.00 96 1009.3
20260507043009 8 20 3.2 0.0 0.00 0.00 0.00 96 1009.3
20260507042909 8 9 4.8 0.0 0.00 0.00 0.00 96 1009.3
20260507042809 8 97 3.2 0.0 0.00 0.00 0.00 96 1009.3
20260507042709 8 110 4.8 0.0 0.00 0.00 0.00 96 1009.2
20260507042609 8 320 4.8 0.0 0.00 0.00 0.00 96 1009.1
20260507042509 8 317 3.2 0.0 0.00 0.00 0.00 96 1009.3
20260507042409 8 43 3.2 0.0 0.00 0.00 0.00 96 1009.3
20260507042309 8 30 3.2 0.0 0.00 0.00 0.00 96 1009.2
20260507042209 8 181 3.2 0.0 0.00 0.00 0.00 96 1009.2
20260507042109 8 87 3.2 0.0 0.00 0.00 0.00 96 1009.2
20260507042009 8 17 4.8 0.0 0.00 0.00 0.00 96 1009.2
20260507041909 8 331 3.2 0.0 0.00 0.00 0.00 96 1009.1
20260507041809 8 80 3.2 0.0 0.00 0.00 0.00 96 1009.2
20260507041709 8 155 3.2 0.0 0.00 0.00 0.00 96 1009.1
20260507041609 8 149 3.2 0.0 0.00 0.00 0.00 96 1009.1
20260507041509 8 95 3.2 0.0 0.00 0.00 0.00 96 1009.2
20260507041409 8 286 3.2 0.0 0.00 0.00 0.00 96 1009.1
20260507041308 8 216 6.4 0.0 0.00 0.00 0.00 96 1009.1
20260507041208 8 216 4.8 0.0 0.00 0.00 0.00 96 1008.9
20260507041108 8 318 6.4 0.0 0.00 0.00 0.00 96 1008.9
20260507041008 8 246 6.4 0.0 0.00 0.00 0.00 96 1008.9
20260507040908 8 211 6.4 0.0 0.00 0.00 0.00 96 1008.9
20260507040808 8 79 3.2 0.0 0.00 0.00 0.00 95 1008.8
20260507040708 8 109 3.2 0.0 0.00 0.00 0.00 95 1008.8
20260507040608 8 105 3.2 0.0 0.00 0.00 0.00 95 1008.8
20260507040508 8 151 3.2 0.0 0.00 0.00 0.00 95 1008.9
20260507040408 8 210 3.2 0.0 0.00 0.00 0.00 96 1008.8
20260507040308 8 192 3.2 0.0 0.00 0.00 0.00 96 1008.8
20260507040208 8 271 4.8 0.0 0.00 0.00 0.00 96 1008.8
20260507040108 8 226 4.8 0.0 0.00 0.00 0.00 96 1008.9
20260507040008 8 27 3.2 0.0 0.00 0.00 0.00 96 1008.7
20260507035908 8 12 1.6 0.0 0.00 0.00 0.00 96 1008.8
20260507035808 8 47 4.8 0.0 0.00 0.00 0.00 96 1008.7
20260507035707 8 93 1.6 0.0 0.00 0.00 0.00 96 1008.8
20260507035607 8 309 4.8 0.0 0.00 0.00 0.00 96 1008.7
20260507035507 8 269 3.2 0.0 0.00 0.00 0.00 96 1008.8
20260507035407 8 54 3.2 0.0 0.00 0.00 0.00 96 1008.7
20260507035307 8 243 6.4 0.0 0.00 0.00 0.00 95 1008.6
20260507035207 8 216 6.4 0.0 0.00 0.00 0.00 95 1008.6
20260507035108 8 96 3.2 0.0 0.00 0.00 0.00 96 1008.7
20260507035007 8 99 4.8 0.0 0.00 0.00 0.00 95 1008.8
20260507034907 8 168 4.8 0.0 0.00 0.00 0.00 95 1008.7
20260507034807 8 261 6.4 0.0 0.00 0.00 0.00 96 1008.6
20260507034707 8 201 6.4 0.0 0.00 0.00 0.00 96 1008.7
20260507034607 9 207 6.4 0.0 0.00 0.00 0.00 95 1008.7
20260507034507 9 217 6.4 0.0 0.00 0.00 0.00 95 1008.6
20260507034407 8 149 6.4 0.0 0.00 0.00 0.00 95 1008.6
20260507034307 8 343 4.8 0.0 0.00 0.00 0.00 95 1008.6
20260507034207 8 123 4.8 0.0 0.00 0.00 0.00 95 1008.6
20260507034106 9 157 3.2 0.0 0.00 0.00 0.00 95 1008.7
20260507034006 9 85 4.8 0.0 0.00 0.00 0.00 95 1008.6
20260507033906 9 126 6.4 0.0 0.00 0.00 0.00 95 1008.7
20260507033806 9 149 3.2 0.0 0.00 0.00 0.00 95 1008.6
20260507033706 9 187 4.8 0.0 0.00 0.00 0.00 95 1008.6
20260507033606 8 197 6.4 0.0 0.00 0.00 0.00 95 1008.6
20260507033506 8 183 4.8 0.0 0.00 0.00 0.00 95 1008.6
20260507033406 9 110 4.8 0.0 0.00 0.00 0.00 95 1008.6
20260507033306 9 84 3.2 0.0 0.00 0.00 0.00 95 1008.6
20260507033206 9 256 3.2 0.0 0.00 0.00 0.00 95 1008.7
20260507033106 9 223 4.8 0.0 0.00 0.00 0.00 95 1008.7
20260507033006 9 233 6.4 0.0 0.00 0.00 0.00 95 1008.6
20260507032906 9 222 4.8 0.0 0.00 0.00 0.00 95 1008.6
20260507032806 9 166 4.8 0.0 0.00 0.00 0.00 95 1008.6
20260507032706 9 172 4.8 0.0 0.00 0.00 0.00 95 1008.6
20260507032606 9 188 4.8 0.0 0.00 0.00 0.00 95 1008.6
20260507032506 9 266 6.4 0.0 0.00 0.00 0.00 95 1008.5
20260507032405 9 157 4.8 0.0 0.00 0.00 0.00 95 1008.5
20260507032306 9 220 4.8 0.0 0.00 0.00 0.00 95 1008.5
20260507032205 9 205 3.2 0.0 0.00 0.00 0.00 95 1008.6
20260507032105 9 158 4.8 0.0 0.00 0.00 0.00 95 1008.5
20260507032005 9 156 4.8 0.0 0.00 0.00 0.00 95 1008.5
20260507031905 9 244 3.2 0.0 0.00 0.00 0.00 95 1008.6
20260507031805 9 207 4.8 0.0 0.00 0.00 0.00 95 1008.5
20260507031705 9 289 4.8 0.0 0.00 0.00 0.00 95 1008.6
20260507031605 9 119 6.4 0.0 0.00 0.00 0.00 95 1008.4
20260507031505 9 106 4.8 0.0 0.00 0.00 0.00 95 1008.5
20260507031405 9 120 4.8 0.0 0.00 0.00 0.00 95 1008.5
20260507031305 9 255 3.2 0.0 0.00 0.00 0.00 95 1008.4
20260507031205 9 180 4.8 0.0 0.00 0.00 0.00 95 1008.5
20260507031105 9 331 6.4 0.0 0.00 0.00 0.00 95 1008.5
20260507031005 9 6 6.4 0.0 0.00 0.00 0.00 95 1008.4
20260507030905 9 96 3.2 0.0 0.00 0.00 0.00 95 1008.4
20260507030804 9 245 3.2 0.0 0.00 0.00 0.00 95 1008.5
20260507030704 9 194 4.8 0.0 0.00 0.00 0.00 95 1008.3
20260507030604 9 70 3.2 0.0 0.00 0.00 0.00 95 1008.5
20260507030504 9 323 4.8 0.0 0.00 0.00 0.00 95 1008.4
20260507030404 9 4 3.2 0.0 0.00 0.00 0.00 95 1008.4
20260507030304 9 32 3.2 0.0 0.00 0.00 0.00 95 1008.4
20260507030204 9 158 1.6 0.0 0.00 0.00 0.00 95 1008.5
20260507030104 9 357 4.8 0.0 0.00 0.00 0.00 95 1008.4
20260507030004 9 323 1.6 0.0 0.00 0.00 0.00 95 1008.4
20260507025904 9 1 0.0 0.0 0.00 0.00 0.00 95 1008.4
20260507025804 9 349 1.6 0.0 0.00 0.00 0.00 95 1008.4
20260507025704 9 209 1.6 0.0 0.00 0.00 0.00 95 1008.4
20260507025604 9 151 1.6 0.0 0.00 0.00 0.00 95 1008.3
20260507025504 9 201 1.6 0.0 0.00 0.00 0.00 95 1008.4
20260507025404 9 157 0.0 0.0 0.00 0.00 0.00 95 1008.4
20260507025306 9 48 1.6 0.0 0.00 0.00 0.00 95 1008.4
20260507025204 9 82 1.6 0.0 0.00 0.00 0.00 95 1008.4
20260507025103 9 81 1.6 0.0 0.00 0.00 0.00 95 1008.4
20260507025003 9 73 0.0 0.0 0.00 0.00 0.00 95 1008.3
20260507024903 9 215 1.6 0.0 0.00 0.00 0.00 95 1008.3
20260507024803 9 249 1.6 0.0 0.00 0.00 0.00 95 1008.4
20260507024703 9 165 0.0 0.0 0.00 0.00 0.00 95 1008.3
20260507024603 9 115 3.2 0.0 0.00 0.00 0.00 95 1008.2
20260507024503 9 168 3.2 0.0 0.00 0.00 0.00 95 1008.2
20260507024403 9 80 1.6 0.0 0.00 0.00 0.00 95 1008.2
20260507024303 9 341 1.6 0.0 0.00 0.00 0.00 95 1008.3
20260507024203 9 354 4.8 0.0 0.00 0.00 0.00 95 1008.3
20260507024103 9 246 1.6 0.0 0.00 0.00 0.00 95 1008.3
20260507024003 9 72 3.2 0.0 0.00 0.00 0.00 95 1008.3
20260507023903 9 124 0.0 0.0 0.00 0.00 0.00 95 1008.4
20260507023803 9 33 0.0 0.0 0.00 0.00 0.00 95 1008.3
20260507023703 10 337 1.6 0.0 0.00 0.00 0.00 95 1008.3
20260507023603 10 145 1.6 0.0 0.00 0.00 0.00 95 1008.2
20260507023502 10 209 0.0 0.0 0.00 0.00 0.00 95 1008.2
20260507023402 10 71 1.6 0.0 0.00 0.00 0.00 95 1008.2
20260507023302 10 175 0.0 0.0 0.00 0.00 0.00 95 1008.2
20260507023202 10 190 3.2 0.0 0.00 0.00 0.00 95 1008.2
20260507023102 10 193 1.6 0.0 0.00 0.00 0.00 95 1008.4
20260507023002 10 63 1.6 0.0 0.00 0.00 0.00 95 1008.3
20260507022902 10 69 1.6 0.0 0.00 0.00 0.00 95 1008.2
20260507022802 10 192 1.6 0.0 0.00 0.00 0.00 95 1008.2
20260507022702 10 146 1.6 0.0 0.00 0.00 0.00 95 1008.2
20260507022602 10 157 0.0 0.0 0.00 0.00 0.00 95 1008.2
20260507022502 10 157 0.0 0.0 0.00 0.00 0.00 95 1008.3
20260507022402 10 140 1.6 0.0 0.00 0.00 0.00 95 1008.1
20260507022302 10 22 1.6 0.0 0.00 0.00 0.00 95 1008.1
20260507022202 10 175 1.6 0.0 0.00 0.00 0.00 95 1008.3
20260507022102 10 175 1.6 0.0 0.00 0.00 0.00 95 1008.2
20260507022002 10 49 3.2 0.0 0.00 0.00 0.00 95 1008.2
20260507021902 10 321 1.6 0.0 0.00 0.00 0.00 95 1008.3
20260507021801 10 186 1.6 0.0 0.00 0.00 0.00 95 1008.2
20260507021701 10 164 0.0 0.0 0.00 0.00 0.00 95 1008.2
20260507021601 10 130 0.0 0.0 0.00 0.00 0.00 95 1008.1
20260507021501 10 198 3.2 0.0 0.00 0.00 0.00 95 1008.1
20260507021401 10 297 1.6 0.0 0.00 0.00 0.00 95 1008.2
20260507021301 10 256 0.0 0.0 0.00 0.00 0.00 95 1008.0
20260507021201 10 56 1.6 0.0 0.00 0.00 0.00 95 1008.1
20260507021101 10 80 1.6 0.0 0.00 0.00 0.00 95 1008.0
20260507021001 10 218 1.6 0.0 0.00 0.00 0.00 95 1008.1
20260507020901 10 195 3.2 0.0 0.00 0.00 0.00 95 1008.1
20260507020801 10 273 1.6 0.0 0.00 0.00 0.00 95 1008.2
20260507020701 10 23 1.6 0.0 0.00 0.00 0.00 95 1008.0
20260507020601 10 37 1.6 0.0 0.00 0.00 0.00 95 1008.1
20260507020501 10 234 3.2 0.0 0.00 0.00 0.00 95 1008.0
20260507020401 10 130 1.6 0.0 0.00 0.00 0.00 95 1008.0
20260507020301 10 84 1.6 0.0 0.00 0.00 0.00 95 1008.0
20260507020200 10 210 1.6 0.0 0.00 0.00 0.00 95 1008.0
20260507020100 10 12 1.6 0.0 0.00 0.00 0.00 95 1007.9
20260507020000 10 46 3.2 0.0 0.00 0.00 0.00 95 1008.1
20260507015900 10 219 1.6 0.0 0.00 0.00 0.00 95 1008.0
20260507015800 10 159 1.6 0.0 0.00 0.00 0.00 95 1008.1
20260507015700 10 210 3.2 0.0 0.00 0.00 0.00 95 1008.1
20260507015600 10 215 1.6 0.0 0.00 0.00 0.00 95 1007.9
20260507015500 10 264 1.6 0.0 0.00 0.00 0.00 95 1008.0
20260507015400 10 195 3.2 0.0 0.00 0.00 0.00 95 1008.1
20260507015300 10 127 1.6 0.0 0.00 0.00 0.00 95 1008.0
20260507015200 10 357 1.6 0.0 0.00 0.00 0.00 95 1008.0
20260507015100 10 297 4.8 0.0 0.00 0.00 0.00 95 1008.0
20260507015000 10 68 1.6 0.0 0.00 0.00 0.00 95 1007.9
20260507014900 10 229 0.0 0.0 0.00 0.00 0.00 95 1008.0
20260507014800 10 358 1.6 0.0 0.00 0.00 0.00 95 1008.0
20260507014700 10 213 3.2 0.0 0.00 0.00 0.00 95 1007.8
20260507014600 10 198 3.2 0.0 0.00 0.00 0.00 95 1008.0
20260507014459 10 313 1.6 0.0 0.00 0.00 0.00 95 1007.8
20260507014400 10 320 0.0 0.0 0.00 0.00 0.00 95 1007.9
20260507014259 10 323 3.2 0.0 0.00 0.00 0.00 95 1008.0
20260507014159 10 31 1.6 0.0 0.00 0.00 0.00 95 1007.9
20260507014059 10 260 1.6 0.0 0.00 0.00 0.00 95 1007.9
20260507013959 10 244 3.2 0.0 0.00 0.00 0.00 95 1007.9
20260507013859 10 226 4.8 0.0 0.00 0.00 0.00 95 1007.8
20260507013759 10 22 3.2 0.0 0.00 0.00 0.00 95 1007.8
20260507013659 10 340 3.2 0.0 0.00 0.00 0.00 95 1007.8
20260507013559 10 306 3.2 0.0 0.00 0.00 0.00 95 1007.9
20260507013459 10 309 1.6 0.0 0.00 0.00 0.00 95 1007.8
20260507013359 10 320 3.2 0.0 0.00 0.00 0.00 95 1007.8
20260507013259 10 66 1.6 0.0 0.00 0.00 0.00 95 1007.9
20260507013159 10 242 3.2 0.0 0.00 0.00 0.00 95 1007.8
20260507013059 10 166 1.6 0.0 0.00 0.00 0.00 95 1007.7
20260507012958 10 118 0.0 0.0 0.00 0.00 0.00 95 1007.8
20260507012858 10 100 1.6 0.0 0.00 0.00 0.00 95 1007.8
20260507012758 10 244 3.2 0.0 0.00 0.00 0.00 95 1007.8
20260507012658 10 126 0.0 0.0 0.00 0.00 0.00 95 1007.7
20260507012558 10 251 1.6 0.0 0.00 0.00 0.00 95 1007.7
20260507012458 10 350 1.6 0.0 0.00 0.00 0.00 95 1007.7
20260507012358 10 186 3.2 0.0 0.00 0.00 0.00 95 1007.7
20260507012258 10 329 4.8 0.0 0.00 0.00 0.00 95 1007.8
20260507012158 10 339 1.6 0.0 0.00 0.00 0.00 95 1007.7
20260507012058 10 285 4.8 0.0 0.00 0.00 0.00 95 1007.8
20260507011958 10 36 0.0 0.0 0.00 0.00 0.00 95 1007.7
20260507011858 10 172 1.6 0.0 0.00 0.00 0.00 95 1007.7
20260507011758 10 102 4.8 0.0 0.00 0.00 0.00 95 1007.7
20260507011658 10 222 1.6 0.0 0.00 0.00 0.00 95 1007.7
20260507011558 10 48 1.6 0.0 0.00 0.00 0.00 95 1007.7
20260507011458 10 120 1.6 0.0 0.00 0.00 0.00 95 1007.8
20260507011358 10 293 0.0 0.0 0.00 0.00 0.00 94 1007.7
20260507011258 10 144 1.6 0.0 0.00 0.00 0.00 95 1007.6
20260507011157 10 197 1.6 0.0 0.00 0.00 0.00 95 1007.7
20260507011057 10 229 1.6 0.0 0.00 0.00 0.00 94 1007.6
20260507010957 10 49 4.8 0.0 0.00 0.00 0.00 94 1007.5
20260507010857 10 144 1.6 0.0 0.00 0.00 0.00 94 1007.5
20260507010757 10 161 3.2 0.0 0.00 0.00 0.00 94 1007.7
20260507010657 10 344 3.2 0.0 0.00 0.00 0.00 94 1007.6
20260507010557 10 9 3.2 0.0 0.00 0.00 0.00 94 1007.6
20260507010457 10 166 3.2 0.0 0.00 0.00 0.00 94 1007.6
20260507010357 10 249 3.2 0.0 0.00 0.00 0.00 94 1007.6
20260507010257 10 113 0.0 0.0 0.00 0.00 0.00 94 1007.7
20260507010157 10 288 3.2 0.0 0.00 0.00 0.00 94 1007.7
20260507010057 10 326 1.6 0.0 0.00 0.00 0.00 94 1007.6
20260507005957 10 309 3.2 0.0 0.00 0.00 0.00 94 1007.5
20260507005857 10 230 3.2 0.0 0.00 0.00 0.00 94 1007.6
20260507005757 10 256 1.6 0.0 0.00 0.00 0.00 94 1007.5
20260507005657 10 152 1.6 0.0 0.00 0.00 0.00 94 1007.5
20260507005556 10 135 1.6 0.0 0.00 0.00 0.00 94 1007.7
20260507005456 10 278 1.6 0.0 0.00 0.00 0.00 94 1007.6
20260507005356 10 315 1.6 0.0 0.00 0.00 0.00 94 1007.7
20260507005256 10 5 3.2 0.0 0.00 0.00 0.00 94 1007.7
20260507005156 10 65 1.6 0.0 0.00 0.00 0.00 94 1007.7
20260507005056 10 243 1.6 0.0 0.00 0.00 0.00 94 1007.6
20260507004956 10 224 1.6 0.0 0.00 0.00 0.00 94 1007.6
20260507004856 10 7 1.6 0.0 0.00 0.00 0.00 94 1007.6
20260507004756 10 147 1.6 0.0 0.00 0.00 0.00 94 1007.7
20260507004656 10 8 1.6 0.0 0.00 0.00 0.00 94 1007.7
20260507004556 10 121 0.0 0.0 0.00 0.00 0.00 94 1007.7
20260507004456 10 128 0.0 0.0 0.00 0.00 0.00 94 1007.6
20260507004356 10 89 1.6 0.0 0.00 0.00 0.00 94 1007.6
20260507004256 10 280 1.6 0.0 0.00 0.00 0.00 94 1007.6
20260507004156 10 100 1.6 0.0 0.00 0.00 0.00 94 1007.6
20260507004056 10 63 1.6 0.0 0.00 0.00 0.00 94 1007.5
20260507003955 10 4 0.0 0.0 0.00 0.00 0.00 94 1007.6
20260507003855 10 233 0.0 0.0 0.00 0.00 0.00 94 1007.6
20260507003755 10 119 1.6 0.0 0.00 0.00 0.00 94 1007.5
20260507003655 10 201 1.6 0.0 0.00 0.00 0.00 94 1007.6
20260507003555 10 310 0.0 0.0 0.00 0.00 0.00 94 1007.6
20260507003455 10 345 3.2 0.0 0.00 0.00 0.00 94 1007.5
20260507003355 10 60 1.6 0.0 0.00 0.00 0.00 94 1007.6
20260507003255 10 192 1.6 0.0 0.00 0.00 0.00 94 1007.6
20260507003155 10 140 3.2 0.0 0.00 0.00 0.00 94 1007.7
20260507003055 10 144 1.6 0.0 0.00 0.00 0.00 94 1007.7
20260507002955 10 325 1.6 0.0 0.00 0.00 0.00 94 1007.6
20260507002855 10 224 1.6 0.0 0.00 0.00 0.00 94 1007.6
20260507002755 10 84 3.2 0.0 0.00 0.00 0.00 94 1007.5
20260507002655 10 225 1.6 0.0 0.00 0.00 0.00 94 1007.6
20260507002555 10 74 3.2 0.0 0.00 0.00 0.00 94 1007.5
20260507002455 10 30 3.2 0.0 0.00 0.00 0.00 94 1007.6
20260507002354 10 43 1.6 0.0 0.00 0.00 0.00 94 1007.5
20260507002254 10 26 1.6 0.0 0.00 0.00 0.00 94 1007.5
20260507002154 11 56 1.6 0.0 0.00 0.00 0.00 94 1007.5
20260507002054 11 359 1.6 0.0 0.00 0.00 0.00 94 1007.5
20260507001954 10 126 1.6 0.0 0.00 0.00 0.00 94 1007.5
20260507001854 11 19 6.4 0.0 0.00 0.00 0.00 94 1007.3
20260507001754 11 326 3.2 0.0 0.00 0.00 0.00 94 1007.5
20260507001654 11 135 1.6 0.0 0.00 0.00 0.00 94 1007.4
20260507001554 11 154 4.8 0.0 0.00 0.00 0.00 94 1007.5
20260507001455 11 339 1.6 0.0 0.00 0.00 0.00 94 1007.3
20260507001354 11 108 3.2 0.0 0.00 0.00 0.00 94 1007.4
20260507001254 11 211 1.6 0.0 0.00 0.00 0.00 94 1007.4
20260507001154 11 197 0.0 0.0 0.00 0.00 0.00 94 1007.5
20260507001054 11 176 1.6 0.0 0.00 0.00 0.00 94 1007.5
20260507000954 11 192 0.0 0.0 0.00 0.00 0.00 94 1007.4
20260507000854 11 315 1.6 0.0 0.00 0.00 0.00 94 1007.4
20260507000753 11 115 1.6 0.0 0.00 0.00 0.00 94 1007.4
20260507000653 11 54 1.6 0.0 0.00 0.00 0.00 94 1007.5
20260507000553 11 150 3.2 0.0 0.00 0.00 0.00 94 1007.4
20260507000453 11 149 1.6 0.0 0.00 0.00 0.00 94 1007.4
20260507000353 11 354 1.6 0.0 0.00 0.00 0.00 94 1007.6
20260507000253 11 323 1.6 0.0 0.00 0.00 0.00 94 1007.5
20260507000153 11 148 3.2 0.0 0.00 0.00 0.00 94 1007.4
20260507000053 11 0 1.6 0.0 0.00 0.00 0.00 94 1007.6
20260506235953 11 226 1.6 0.0 0.00 0.00 0.00 94 1007.5
20260506235853 11 222 1.6 0.0 0.00 0.00 0.00 94 1007.6
20260506235753 11 165 1.6 0.0 0.00 0.00 0.00 94 1007.6
20260506235653 11 324 3.2 0.0 0.00 0.00 0.00 94 1007.5
20260506235553 11 299 1.6 0.0 0.00 0.00 0.00 94 1007.5
20260506235453 11 84 1.6 0.0 0.00 0.00 0.00 94 1007.6
20260506235353 11 99 3.2 0.0 0.00 0.00 0.00 94 1007.5
20260506235253 11 205 1.6 0.0 0.00 0.00 0.00 94 1007.5
20260506235153 11 150 3.2 0.0 0.00 0.00 0.00 94 1007.5
20260506235052 11 193 1.6 0.0 0.00 0.00 0.00 94 1007.6
20260506234952 11 1 4.8 0.0 0.00 0.00 0.00 94 1007.6
20260506234852 11 153 1.6 0.0 0.00 0.00 0.00 94 1007.5
20260506234752 11 230 3.2 0.0 0.00 0.00 0.00 94 1007.6
20260506234652 11 135 1.6 0.0 0.00 0.00 0.00 94 1007.4
20260506234552 11 173 0.0 0.0 0.00 0.00 0.00 94 1007.5
20260506234452 11 313 3.2 0.0 0.00 0.00 0.00 94 1007.4
20260506234352 11 49 3.2 0.0 0.00 0.00 0.00 94 1007.5
20260506234252 11 186 1.6 0.0 0.00 0.00 0.00 94 1007.5
20260506234152 11 305 3.2 0.0 0.00 0.00 0.00 94 1007.5
20260506234052 11 16 3.2 0.0 0.00 0.00 0.00 94 1007.5
20260506233952 11 51 1.6 0.0 0.00 0.00 0.00 94 1007.5
20260506233852 11 99 0.0 0.0 0.00 0.00 0.00 94 1007.5
20260506233752 11 62 0.0 0.0 0.00 0.00 0.00 94 1007.5
20260506233652 11 310 1.6 0.0 0.00 0.00 0.00 94 1007.4
20260506233552 11 160 0.0 0.0 0.00 0.00 0.00 94 1007.5
20260506233452 11 240 1.6 0.0 0.00 0.00 0.00 94 1007.5
20260506233351 11 205 0.0 0.0 0.00 0.00 0.00 94 1007.4
20260506233251 11 27 1.6 0.0 0.00 0.00 0.00 94 1007.4
20260506233151 11 354 1.6 0.0 0.00 0.00 0.00 94 1007.4
20260506233051 11 174 1.6 0.0 0.00 0.00 0.00 94 1007.4
20260506232951 11 160 1.6 0.0 0.00 0.00 0.00 94 1007.4
20260506232851 11 89 1.6 0.0 0.00 0.00 0.00 94 1007.4
20260506232751 11 189 0.0 0.0 0.00 0.00 0.00 94 1007.4
20260506232651 11 33 1.6 0.0 0.00 0.00 0.00 94 1007.4
20260506232551 11 204 0.0 0.0 0.00 0.00 0.00 94 1007.5
20260506232451 11 217 0.0 0.0 0.00 0.00 0.00 94 1007.5
20260506232351 11 183 1.6 0.0 0.00 0.00 0.00 94 1007.4
20260506232251 11 196 1.6 0.0 0.00 0.00 0.00 94 1007.5
20260506232151 11 124 3.2 0.0 0.00 0.00 0.00 94 1007.4
20260506232051 11 44 0.0 0.0 0.00 0.00 0.00 94 1007.4
20260506231951 11 97 1.6 0.0 0.00 0.00 0.00 94 1007.5
20260506231851 11 50 0.0 0.0 0.00 0.00 0.00 94 1007.5
20260506231751 11 208 1.6 0.0 0.00 0.00 0.00 94 1007.4
20260506231650 11 48 1.6 0.0 0.00 0.00 0.00 94 1007.4
20260506231550 11 22 0.0 0.0 0.00 0.00 0.00 94 1007.4
20260506231450 11 117 0.0 0.0 0.00 0.00 0.00 94 1007.4
20260506231350 11 16 1.6 0.0 0.00 0.00 0.00 94 1007.4
20260506231250 11 25 0.0 0.0 0.00 0.00 0.00 94 1007.4
20260506231150 11 309 0.0 0.0 0.00 0.00 0.00 94 1007.4
20260506231050 11 277 0.0 0.0 0.00 0.00 0.00 94 1007.3
20260506230950 11 22 0.0 0.0 0.00 0.00 0.00 94 1007.4
20260506230850 11 250 0.0 0.0 0.00 0.00 0.00 94 1007.4
20260506230750 11 212 0.0 0.0 0.00 0.00 0.00 94 1007.3
20260506230650 11 314 1.6 0.0 0.00 0.00 0.00 94 1007.4
20260506230550 11 205 1.6 0.0 0.00 0.00 0.00 94 1007.4
20260506230450 11 209 1.6 0.0 0.00 0.00 0.00 94 1007.4
20260506230350 11 41 1.6 0.0 0.00 0.00 0.00 94 1007.3
20260506230250 11 230 0.0 0.0 0.00 0.00 0.00 94 1007.3
20260506230150 11 240 1.6 0.0 0.00 0.00 0.00 94 1007.4
20260506230049 11 28 1.6 0.0 0.00 0.00 0.00 94 1007.3
20260506225949 11 6 0.0 0.0 0.00 0.00 0.00 94 1007.4
20260506225849 11 92 4.8 0.0 0.00 0.00 0.00 94 1007.4
20260506225749 11 49 1.6 0.0 0.00 0.00 0.00 94 1007.3
20260506225649 11 40 1.6 0.0 0.00 0.00 0.00 94 1007.4
20260506225549 11 206 1.6 0.0 0.00 0.00 0.00 93 1007.3
20260506225449 11 140 0.0 0.0 0.00 0.00 0.00 93 1007.3
20260506225349 11 312 1.6 0.0 0.00 0.00 0.00 93 1007.4
20260506225249 11 295 1.6 0.0 0.00 0.00 0.00 93 1007.4
20260506225149 11 312 1.6 0.0 0.00 0.00 0.00 93 1007.3
20260506225049 11 44 1.6 0.0 0.00 0.00 0.00 93 1007.3
20260506224949 11 253 1.6 0.0 0.00 0.00 0.00 93 1007.3
20260506224849 11 301 3.2 0.0 0.00 0.00 0.00 93 1007.3
20260506224749 11 249 1.6 0.0 0.00 0.00 0.00 93 1007.3
20260506224649 11 6 0.0 0.0 0.00 0.00 0.00 93 1007.3
20260506224549 11 37 1.6 0.0 0.00 0.00 0.00 93 1007.3
20260506224448 11 305 1.6 0.0 0.00 0.00 0.00 93 1007.4
20260506224348 11 224 3.2 0.0 0.00 0.00 0.00 93 1007.3
20260506224248 11 207 0.0 0.0 0.00 0.00 0.00 93 1007.4
20260506224148 11 357 3.2 0.0 0.00 0.00 0.00 93 1007.3
20260506224048 11 265 4.8 0.0 0.00 0.00 0.00 93 1007.2
20260506223948 11 34 1.6 0.0 0.00 0.00 0.00 93 1007.2
20260506223848 11 304 1.6 0.0 0.00 0.00 0.00 93 1007.2
20260506223748 11 322 0.0 0.0 0.00 0.00 0.00 93 1007.2
20260506223648 11 125 0.0 0.0 0.00 0.00 0.00 93 1007.2
20260506223548 11 294 1.6 0.0 0.00 0.00 0.00 93 1007.2
20260506223448 11 47 3.2 0.0 0.00 0.00 0.00 93 1007.2
20260506223348 11 279 1.6 0.0 0.00 0.00 0.00 93 1007.1
20260506223248 11 0 3.2 0.0 0.00 0.00 0.00 93 1007.2
20260506223148 11 296 1.6 0.0 0.00 0.00 0.00 94 1007.3
20260506223048 11 1 1.6 0.0 0.00 0.00 0.00 94 1007.1
20260506222948 11 256 0.0 0.0 0.00 0.00 0.00 94 1007.1
20260506222847 11 159 1.6 0.0 0.00 0.00 0.00 94 1007.2
20260506222747 11 261 1.6 0.0 0.00 0.00 0.00 94 1007.2
20260506222647 11 269 3.2 0.0 0.00 0.00 0.00 94 1007.1
20260506222547 11 342 1.6 0.0 0.00 0.00 0.00 94 1007.1
20260506222447 11 339 1.6 0.0 0.00 0.00 0.00 94 1007.1
20260506222347 11 66 1.6 0.0 0.00 0.00 0.00 94 1007.1
20260506222247 11 68 0.0 0.0 0.00 0.00 0.00 94 1007.1
20260506222147 11 193 0.0 0.0 0.00 0.00 0.00 94 1007.1
20260506222047 11 303 3.2 0.0 0.00 0.00 0.00 94 1007.1
20260506221947 11 180 3.2 0.0 0.00 0.00 0.00 94 1007.2
20260506221847 11 246 3.2 0.0 0.00 0.00 0.00 94 1007.1
20260506221747 11 309 0.0 0.0 0.00 0.00 0.00 94 1007.1
20260506221647 11 159 0.0 0.0 0.00 0.00 0.00 94 1007.0
20260506221547 11 180 0.0 0.0 0.00 0.00 0.00 94 1007.1
20260506221447 11 322 0.0 0.0 0.00 0.00 0.00 94 1007.0
20260506221347 11 173 3.2 0.0 0.00 0.00 0.00 94 1007.1
20260506221247 11 27 3.2 0.0 0.00 0.00 0.00 95 1007.1
20260506221146 11 242 0.0 0.0 0.00 0.00 0.00 95 1007.1
20260506221046 11 89 1.6 0.0 0.00 0.00 0.00 95 1007.0
20260506220946 11 78 1.6 0.0 0.00 0.00 0.00 95 1007.0
20260506220846 11 101 1.6 0.0 0.00 0.00 0.00 95 1007.1
20260506220746 11 79 0.0 0.0 0.00 0.00 0.00 95 1007.1
20260506220646 11 197 1.6 0.0 0.00 0.00 0.00 95 1007.1
20260506220546 11 246 0.0 0.0 0.00 0.00 0.00 96 1007.0
20260506220446 11 205 0.0 0.0 0.00 0.00 0.00 96 1007.1
20260506220346 11 104 1.6 0.0 0.00 0.00 0.00 96 1007.0
20260506220246 11 50 1.6 0.0 0.00 0.00 0.00 96 1007.0
20260506220146 11 252 1.6 0.0 0.00 0.00 0.00 96 1007.0
20260506220046 11 286 1.6 0.0 0.00 0.00 0.00 96 1007.0
20260506215946 11 11 1.6 0.0 0.00 0.00 0.00 96 1007.0
20260506215846 11 154 0.0 0.0 0.00 0.00 0.00 96 1007.0
20260506215746 11 1 0.0 0.0 0.00 0.00 0.00 96 1007.0
20260506215646 11 293 0.0 0.0 0.00 0.00 0.00 96 1007.0
20260506215545 11 293 1.6 0.0 0.00 0.00 0.00 96 1007.1
20260506215445 11 50 0.0 0.0 0.00 0.00 0.00 96 1007.0
20260506215345 11 50 0.0 0.0 0.00 0.00 0.00 96 1007.1
20260506215245 11 62 0.0 0.0 0.00 0.00 0.00 96 1007.0
20260506215145 11 191 0.0 0.0 0.00 0.00 0.00 96 1007.1
20260506215045 11 62 0.0 0.0 0.00 0.00 0.00 96 1007.0
20260506214945 11 89 0.0 0.0 0.00 0.00 0.00 96 1007.1
20260506214845 11 141 0.0 0.0 0.00 0.00 0.00 96 1007.1
20260506214745 11 302 1.6 0.0 0.00 0.00 0.00 96 1007.1
20260506214645 11 170 1.6 0.0 0.00 0.00 0.00 96 1007.1
20260506214545 11 142 0.0 0.0 0.00 0.00 0.00 96 1007.1
20260506214445 11 13 0.0 0.0 0.00 0.00 0.00 96 1007.0
20260506214345 11 13 0.0 0.0 0.00 0.00 0.00 96 1007.0
20260506214245 11 55 0.0 0.0 0.00 0.00 0.00 96 1007.1
20260506214145 11 315 1.6 0.0 0.00 0.00 0.00 96 1007.0
20260506214045 11 238 0.0 0.0 0.00 0.00 0.00 96 1007.1
20260506213945 11 269 0.0 0.0 0.00 0.00 0.00 96 1007.1
20260506213844 11 269 0.0 0.0 0.00 0.00 0.00 96 1007.1
20260506213744 11 269 1.6 0.0 0.00 0.00 0.00 96 1007.1
20260506213644 11 276 0.0 0.0 0.00 0.00 0.00 96 1007.1
20260506213544 11 260 1.6 0.0 0.00 0.00 0.00 96 1007.1
20260506213444 11 38 0.0 0.0 0.00 0.00 0.00 96 1007.0
20260506213344 11 224 0.0 0.0 0.00 0.00 0.00 96 1007.0
20260506213244 11 279 1.6 0.0 0.00 0.00 0.00 96 1007.1
20260506213144 11 116 1.6 0.0 0.00 0.00 0.00 96 1007.1
20260506213044 11 230 0.0 0.0 0.00 0.00 0.00 96 1007.0
20260506212944 11 230 0.0 0.0 0.00 0.00 0.00 96 1007.0
20260506212844 11 89 0.0 0.0 0.00 0.00 0.00 96 1007.0
20260506212744 11 89 0.0 0.0 0.00 0.00 0.00 96 1007.0
20260506212644 11 95 1.6 0.0 0.00 0.00 0.00 96 1006.9
20260506212544 11 103 0.0 0.0 0.00 0.00 0.00 96 1006.9
20260506212444 11 103 0.0 0.0 0.00 0.00 0.00 96 1006.9
20260506212344 11 47 1.6 0.0 0.00 0.00 0.00 96 1007.0
20260506212243 11 57 1.6 0.0 0.00 0.00 0.00 96 1006.9
20260506212143 11 13 1.6 0.0 0.00 0.00 0.00 96 1007.0
20260506212043 11 315 0.0 0.0 0.00 0.00 0.00 96 1006.9
20260506211943 11 322 1.6 0.0 0.00 0.00 0.00 96 1006.9
20260506211843 11 50 1.6 0.0 0.00 0.00 0.00 96 1007.0
20260506211743 11 13 1.6 0.0 0.00 0.00 0.00 96 1006.9
20260506211643 11 32 0.0 0.0 0.00 0.00 0.00 96 1006.9
20260506211543 11 115 0.0 0.0 0.00 0.00 0.00 96 1007.0
20260506211443 11 129 0.0 0.0 0.00 0.00 0.00 96 1006.9
20260506211343 11 133 0.0 0.0 0.00 0.00 0.00 96 1006.9
20260506211243 11 135 0.0 0.0 0.00 0.00 0.00 96 1006.9
20260506211143 11 146 0.0 0.0 0.00 0.00 0.00 96 1006.9
20260506211043 11 193 0.0 0.0 0.00 0.00 0.00 96 1006.8
20260506210943 11 150 1.6 0.0 0.00 0.00 0.00 96 1006.9
20260506210843 11 212 0.0 0.0 0.00 0.00 0.00 96 1006.9
20260506210743 11 218 1.6 0.0 0.00 0.00 0.00 96 1006.8
20260506210643 11 232 0.0 0.0 0.00 0.00 0.00 96 1006.8
20260506210542 11 199 0.0 0.0 0.00 0.00 0.00 96 1006.8
20260506210442 11 315 0.0 0.0 0.00 0.00 0.00 96 1006.8
20260506210342 11 315 0.0 0.0 0.00 0.00 0.00 96 1006.8
20260506210242 11 315 0.0 0.0 0.00 0.00 0.00 96 1006.7
20260506210142 11 257 0.0 0.0 0.00 0.00 0.00 96 1006.7
20260506210042 11 135 0.0 0.0 0.00 0.00 0.00 96 1006.8
20260506205942 11 204 0.0 0.0 0.00 0.00 0.00 96 1006.8
20260506205842 11 101 0.0 0.0 0.00 0.00 0.00 96 1006.7
20260506205742 11 135 0.0 0.0 0.00 0.00 0.00 96 1006.7
20260506205642 11 135 0.0 0.0 0.00 0.00 0.00 96 1006.7
20260506205542 11 135 0.0 0.0 0.00 0.00 0.00 96 1006.8
20260506205442 11 135 0.0 0.0 0.00 0.00 0.00 96 1006.7
20260506205342 11 55 0.0 0.0 0.00 0.00 0.00 96 1006.8
20260506205242 11 336 0.0 0.0 0.00 0.00 0.00 96 1006.7
20260506205142 11 336 0.0 0.0 0.00 0.00 0.00 96 1006.8
20260506205042 11 154 0.0 0.0 0.00 0.00 0.00 96 1006.8
20260506204942 11 135 0.0 0.0 0.00 0.00 0.00 96 1006.8
20260506204841 11 135 0.0 0.0 0.00 0.00 0.00 96 1006.8
20260506204741 11 76 0.0 0.0 0.00 0.00 0.00 96 1006.9
20260506204641 11 119 0.0 0.0 0.00 0.00 0.00 96 1006.8
20260506204541 11 347 0.0 0.0 0.00 0.00 0.00 96 1006.8
20260506204441 11 297 0.0 0.0 0.00 0.00 0.00 96 1006.7
20260506204341 11 297 0.0 0.0 0.00 0.00 0.00 96 1006.7
20260506204241 11 129 0.0 0.0 0.00 0.00 0.00 96 1006.7
20260506204141 11 77 0.0 0.0 0.00 0.00 0.00 95 1006.7
20260506204041 11 69 0.0 0.0 0.00 0.00 0.00 95 1006.7
20260506203941 11 135 0.0 0.0 0.00 0.00 0.00 95 1006.7
20260506203841 11 68 0.0 0.0 0.00 0.00 0.00 95 1006.7
20260506203741 11 44 0.0 0.0 0.00 0.00 0.00 95 1006.7
20260506203641 11 50 0.0 0.0 0.00 0.00 0.00 95 1006.7
20260506203541 11 50 1.6 0.0 0.00 0.00 0.00 95 1006.7
20260506203441 11 53 1.6 0.0 0.00 0.00 0.00 95 1006.8
20260506203341 11 66 0.0 0.0 0.00 0.00 0.00 95 1006.7
20260506203240 11 57 1.6 0.0 0.00 0.00 0.00 95 1006.8
20260506203140 11 55 1.6 0.0 0.00 0.00 0.00 95 1006.8
20260506203040 12 77 0.0 0.0 0.00 0.00 0.00 95 1006.7
20260506202940 12 74 0.0 0.0 0.00 0.00 0.00 95 1006.8
20260506202840 12 188 0.0 0.0 0.00 0.00 0.00 95 1006.7
20260506202740 12 188 1.6 0.0 0.00 0.00 0.00 95 1006.7
20260506202640 12 192 0.0 0.0 0.00 0.00 0.00 95 1006.7
20260506202540 12 184 0.0 0.0 0.00 0.00 0.00 95 1006.7
20260506202440 12 179 0.0 0.0 0.00 0.00 0.00 95 1006.7
20260506202340 12 205 0.0 0.0 0.00 0.00 0.00 95 1006.8
20260506202240 12 287 1.6 0.0 0.00 0.00 0.00 95 1006.7
20260506202140 12 315 0.0 0.0 0.00 0.00 0.00 95 1006.7
20260506202040 12 315 0.0 0.0 0.00 0.00 0.00 95 1006.9
20260506201940 12 315 0.0 0.0 0.00 0.00 0.00 95 1006.8
20260506201840 12 315 0.0 0.0 0.00 0.00 0.00 95 1006.8
20260506201740 12 315 0.0 0.0 0.00 0.00 0.00 95 1006.8
20260506201639 12 315 0.0 0.0 0.00 0.00 0.00 95 1006.7
20260506201539 12 315 0.0 0.0 0.00 0.00 0.00 95 1006.7
20260506201439 12 315 0.0 0.0 0.00 0.00 0.00 95 1006.8
20260506201339 12 315 0.0 0.0 0.00 0.00 0.00 95 1006.8
20260506201239 12 309 0.0 0.0 0.00 0.00 0.00 95 1006.8
20260506201139 12 309 0.0 0.0 0.00 0.00 0.00 95 1006.8
20260506201039 12 36 0.0 0.0 0.00 0.00 0.00 95 1006.7
20260506200939 12 50 0.0 0.0 0.00 0.00 0.00 94 1006.7
20260506200839 12 77 1.6 0.0 0.00 0.00 0.00 94 1006.7
20260506200739 12 315 0.0 0.0 0.00 0.00 0.00 94 1006.7
20260506200639 12 315 0.0 0.0 0.00 0.00 0.00 94 1006.7
20260506200539 12 315 0.0 0.0 0.00 0.00 0.00 94 1006.6
20260506200439 12 315 0.0 0.0 0.00 0.00 0.00 94 1006.6
20260506200339 12 315 0.0 0.0 0.00 0.00 0.00 94 1006.7
20260506200239 12 315 0.0 0.0 0.00 0.00 0.00 94 1006.7
20260506200139 12 315 0.0 0.0 0.00 0.00 0.00 94 1006.6
20260506200038 12 315 0.0 0.0 0.00 0.00 0.00 94 1006.7
20260506195938 12 315 0.0 0.0 0.00 0.00 0.00 94 1006.7
20260506195838 12 315 0.0 0.0 0.00 0.00 0.00 94 1006.7
20260506195738 12 315 0.0 0.0 0.00 0.00 0.00 94 1006.6
20260506195638 12 315 0.0 0.0 0.00 0.00 0.00 94 1006.6
20260506195538 12 315 0.0 0.0 0.00 0.00 0.00 94 1006.6
20260506195438 12 80 0.0 0.0 0.00 0.00 0.00 94 1006.6
20260506195338 12 80 0.0 0.0 0.00 0.00 0.00 94 1006.5
20260506195238 12 80 0.0 0.0 0.00 0.00 0.00 94 1006.5
20260506195138 12 80 0.0 0.0 0.00 0.00 0.00 94 1006.5
20260506195038 12 80 0.0 0.0 0.00 0.00 0.00 94 1006.5
20260506194938 12 89 1.6 0.0 0.00 0.00 0.00 94 1006.6
20260506194838 12 52 0.0 0.0 0.00 0.00 0.00 94 1006.5
20260506194738 12 62 0.0 0.0 0.00 0.00 0.00 94 1006.6
20260506194638 12 62 0.0 0.0 0.00 0.00 0.00 94 1006.6
20260506194538 12 50 0.0 0.0 0.00 0.00 0.00 94 1006.6
20260506194438 12 224 0.0 0.0 0.00 0.00 0.00 94 1006.6
20260506194337 12 224 0.0 0.0 0.00 0.00 0.00 94 1006.5
20260506194237 12 183 0.0 0.0 0.00 0.00 0.00 94 1006.5
20260506194137 12 224 0.0 0.0 0.00 0.00 0.00 94 1006.5
20260506194037 12 154 0.0 0.0 0.00 0.00 0.00 94 1006.3
20260506193937 12 297 0.0 0.0 0.00 0.00 0.00 94 1006.3
20260506193837 12 297 0.0 0.0 0.00 0.00 0.00 94 1006.6
20260506193737 12 297 0.0 0.0 0.00 0.00 0.00 94 1006.3
20260506193637 12 297 0.0 0.0 0.00 0.00 0.00 94 1006.5
20260506193537 12 260 0.0 0.0 0.00 0.00 0.00 94 1006.3
20260506193437 12 310 0.0 0.0 0.00 0.00 0.00 94 1006.3
20260506193337 12 310 0.0 0.0 0.00 0.00 0.00 94 1006.3
20260506193237 12 310 0.0 0.0 0.00 0.00 0.00 94 1006.3
20260506193137 12 312 1.6 0.0 0.00 0.00 0.00 94 1006.3
20260506193037 12 52 0.0 0.0 0.00 0.00 0.00 94 1006.2
20260506192937 12 94 0.0 0.0 0.00 0.00 0.00 94 1006.2
20260506192837 12 167 1.6 0.0 0.00 0.00 0.00 94 1006.1
20260506192736 12 221 1.6 0.0 0.00 0.00 0.00 94 1006.2
20260506192636 12 135 0.0 0.0 0.00 0.00 0.00 94 1006.2
20260506192536 12 44 0.0 0.0 0.00 0.00 0.00 94 1006.2
20260506192436 12 93 1.6 0.0 0.00 0.00 0.00 93 1006.1
20260506192336 12 48 0.0 0.0 0.00 0.00 0.00 93 1006.1
20260506192236 12 212 0.0 0.0 0.00 0.00 0.00 93 1006.1
20260506192136 12 66 0.0 0.0 0.00 0.00 0.00 93 1006.1
20260506192036 12 135 1.6 0.0 0.00 0.00 0.00 93 1006.1
20260506191936 12 139 1.6 0.0 0.00 0.00 0.00 93 1006.1
20260506191836 12 197 1.6 0.0 0.00 0.00 0.00 93 1006.1
20260506191736 12 180 0.0 0.0 0.00 0.00 0.00 93 1006.1
20260506191636 12 180 0.0 0.0 0.00 0.00 0.00 93 1006.1
20260506191536 12 129 0.0 0.0 0.00 0.00 0.00 93 1006.1
20260506191436 12 229 0.0 0.0 0.00 0.00 0.00 93 1006.0
20260506191336 12 224 0.0 0.0 0.00 0.00 0.00 93 1006.1
20260506191235 12 224 0.0 0.0 0.00 0.00 0.00 93 1006.0
20260506191135 12 62 0.0 0.0 0.00 0.00 0.00 93 1006.1
20260506191035 12 62 0.0 0.0 0.00 0.00 0.00 93 1006.0
20260506190935 12 62 0.0 0.0 0.00 0.00 0.00 93 1006.1
20260506190835 12 62 0.0 0.0 0.00 0.00 0.00 93 1006.1
20260506190735 12 62 0.0 0.0 0.00 0.00 0.00 93 1006.0
20260506190635 12 80 1.6 0.0 0.00 0.00 0.00 93 1006.1
20260506190535 12 118 0.0 0.0 0.00 0.00 0.00 93 1006.0
20260506190435 12 218 0.0 0.0 0.00 0.00 0.00 93 1006.0
20260506190335 12 218 0.0 0.0 0.00 0.00 0.00 93 1005.9
20260506190235 12 218 0.0 0.0 0.00 0.00 0.00 93 1005.9
20260506190135 12 218 1.6 0.0 0.00 0.00 0.00 93 1005.9
20260506190035 12 256 0.0 4.8 0.00 0.00 0.00 93 1005.9
20260506185935 12 286 3.2 4.8 0.00 0.00 0.00 93 1005.9
20260506185835 12 286 3.2 0.0 0.00 0.00 0.00 93 1005.9
20260506185735 12 326 0.0 0.0 0.00 0.00 0.00 93 1005.9
20260506185634 12 315 0.0 0.0 0.00 0.00 0.00 93 1005.9
20260506185534 12 310 1.6 0.0 0.00 0.00 0.00 93 1005.9
20260506185434 12 89 0.0 0.0 0.00 0.00 0.00 93 1005.9
20260506185334 12 119 0.0 0.0 0.00 0.00 0.00 92 1005.8
20260506185234 12 119 1.6 0.0 0.00 0.00 0.00 92 1005.8
20260506185134 12 168 0.0 0.0 0.00 0.00 0.00 92 1005.8
20260506185034 12 74 0.0 0.0 0.00 0.00 0.00 92 1005.7
20260506184934 12 103 1.6 0.0 0.00 0.00 0.00 92 1005.7
20260506184834 12 68 1.6 0.0 0.00 0.00 0.00 92 1005.8
20260506184734 12 77 0.0 0.0 0.00 0.00 0.00 92 1005.7
20260506184634 12 76 0.0 0.0 0.00 0.00 0.00 92 1005.7
20260506184534 12 76 0.0 0.0 0.00 0.00 0.00 91 1005.8
20260506184434 12 76 0.0 0.0 0.00 0.00 0.00 91 1005.6
20260506184334 12 76 0.0 0.0 0.00 0.00 0.00 91 1005.5
20260506184234 12 62 0.0 0.0 0.00 0.00 0.00 91 1005.5
20260506184134 12 62 0.0 0.0 0.00 0.00 0.00 91 1005.5
20260506184034 12 240 0.0 0.0 0.00 0.00 0.00 91 1005.4
20260506183933 12 240 0.0 0.0 0.00 0.00 0.00 91 1005.4
20260506183833 12 55 0.0 0.0 0.00 0.00 0.00 91 1005.4
20260506183733 12 252 0.0 0.0 0.00 0.00 0.00 90 1005.3
20260506183633 12 299 1.6 0.0 0.00 0.00 0.00 90 1005.4
20260506183533 12 242 1.6 0.0 0.00 0.00 0.00 90 1005.3
20260506183433 12 319 1.6 0.0 0.00 0.00 0.00 90 1005.2
20260506183333 12 315 0.0 0.0 0.00 0.00 0.00 90 1005.1
20260506183233 12 299 3.2 0.0 0.00 0.00 0.00 89 1005.1
20260506183133 12 269 3.2 0.0 0.00 0.00 0.00 90 1005.2
20260506183033 12 254 3.2 0.0 0.00 0.00 0.00 89 1005.2
20260506182933 12 232 0.0 0.0 0.00 0.00 0.00 89 1005.2
20260506182833 12 191 0.0 0.0 0.00 0.00 0.00 89 1005.0
20260506182733 12 175 0.0 0.0 0.00 0.00 0.00 89 1005.1
20260506182633 12 142 1.6 0.0 0.00 0.00 0.00 91 1005.1
20260506182533 12 44 0.0 0.0 0.00 0.00 0.00 91 1005.0
20260506182433 12 89 0.0 0.0 0.00 0.00 0.00 91 1005.1
20260506182333 12 89 0.0 0.0 0.00 0.00 0.00 91 1005.1
20260506182232 12 77 0.0 0.0 0.00 0.00 0.00 91 1005.1
20260506182132 12 50 0.0 0.0 0.00 0.00 0.00 91 1005.1
20260506182032 12 318 1.6 0.0 0.00 0.00 0.00 91 1005.1
20260506181932 12 269 0.0 0.0 0.00 0.00 0.00 91 1005.0
20260506181832 12 279 1.6 0.0 0.00 0.00 0.00 91 1005.2
20260506181732 12 309 0.0 0.0 0.00 0.00 0.00 91 1005.1
20260506181632 12 290 0.0 0.0 0.00 0.00 0.00 90 1005.1
20260506181532 12 290 0.0 0.0 0.00 0.00 0.00 90 1005.2
20260506181432 12 304 1.6 0.0 0.00 0.00 0.00 90 1005.2
20260506181332 12 79 1.6 0.0 0.00 0.00 0.00 90 1005.1
20260506181232 12 112 3.2 0.0 0.00 0.00 0.00 90 1005.1
20260506181132 12 154 0.0 0.0 0.00 0.00 0.00 90 1005.1
20260506181032 12 283 0.0 0.0 0.00 0.00 0.00 90 1005.0
20260506180932 12 185 0.0 0.0 0.00 0.00 0.00 90 1005.1
20260506180832 12 142 0.0 0.0 0.00 0.00 0.00 90 1005.0
20260506180732 12 175 0.0 0.0 0.00 0.00 0.00 90 1005.0
20260506180631 12 101 0.0 0.0 0.00 0.00 0.00 90 1004.9
20260506180531 12 315 0.0 0.0 0.00 0.00 0.00 89 1004.9
20260506180431 12 212 0.0 0.0 0.00 0.00 0.00 90 1004.9
20260506180331 12 212 0.0 0.0 0.00 0.00 0.00 90 1005.0
20260506180231 12 198 1.6 0.0 0.00 0.00 0.00 91 1004.9
20260506180131 12 315 0.0 0.0 0.00 0.00 0.00 90 1004.9
20260506180031 12 209 0.0 0.0 0.00 0.00 0.00 90 1004.8
20260506175931 12 209 1.6 0.0 0.00 0.00 0.00 91 1004.8
20260506175831 12 142 0.0 0.0 0.00 0.00 0.00 91 1004.9
20260506175731 12 147 1.6 0.0 0.00 0.00 0.00 91 1004.9
20260506175631 12 143 1.6 0.0 0.00 0.00 0.00 91 1004.9
20260506175531 12 124 0.0 0.0 0.00 0.00 0.00 91 1004.9
20260506175431 12 309 1.6 0.0 0.00 0.00 0.00 91 1004.9
20260506175331 12 297 1.6 0.0 0.00 0.00 0.00 91 1004.8
20260506175231 12 288 1.6 0.0 0.00 0.00 0.00 91 1005.0
20260506175131 12 311 0.0 0.0 0.00 0.00 0.00 91 1004.9
20260506175122 12 322 0.0 0.0 0.00 0.00 0.00 90 1005.0
20260506174930 12 307 0.0 0.0 0.00 0.00 0.00 90 1005.0
20260506174830 12 322 1.6 0.0 0.00 0.00 0.00 90 1004.9
20260506174730 12 309 1.6 0.0 0.00 0.00 0.00 90 1005.0
20260506174630 12 17 1.6 0.0 0.00 0.00 0.00 90 1005.0
20260506174530 12 43 1.6 0.0 0.00 0.00 0.00 90 1005.0
20260506174430 12 71 1.6 0.0 0.00 0.00 0.00 90 1005.0
20260506174330 12 286 0.0 0.0 0.00 0.00 0.00 91 1005.1
20260506174230 12 333 1.6 0.0 0.00 0.00 0.00 91 1005.1
20260506174130 12 307 1.6 0.0 0.00 0.00 0.00 91 1005.1
20260506174030 12 245 1.6 0.0 0.00 0.00 0.00 91 1005.2
20260506173930 12 230 0.0 0.0 0.00 0.00 0.00 91 1005.1
20260506173830 12 174 1.6 0.0 0.00 0.00 0.00 91 1005.0
20260506173730 12 233 1.6 0.0 0.00 0.00 0.00 91 1005.2
20260506173630 12 292 3.2 0.0 0.00 0.00 0.00 91 1005.0
20260506173530 12 300 3.2 0.0 0.00 0.00 0.00 91 1005.0
20260506173430 12 276 4.8 0.0 0.00 0.00 0.00 91 1005.0
20260506173330 12 294 6.4 0.0 0.00 0.00 0.00 91 1005.0
20260506173229 12 168 3.2 0.0 0.00 0.00 0.00 91 1005.0
20260506173129 12 272 1.6 0.0 0.00 0.00 0.00 91 1004.8
20260506173029 12 258 1.6 0.0 0.00 0.00 0.00 91 1004.8
20260506172929 12 309 1.6 0.0 0.00 0.00 0.00 91 1004.7
20260506172829 12 198 1.6 0.0 0.00 0.00 0.00 90 1004.8
20260506172729 12 166 1.6 0.0 0.00 0.00 0.00 90 1004.7
20260506172629 12 165 1.6 0.0 0.00 0.00 0.00 90 1004.7
20260506172529 12 70 1.6 0.0 0.00 0.00 0.00 90 1004.8
20260506172429 12 65 1.6 0.0 0.00 0.00 0.00 90 1004.8
20260506172329 12 52 1.6 0.0 0.00 0.00 0.00 90 1004.9
20260506172229 12 318 1.6 0.0 0.00 0.00 0.00 89 1005.0
20260506172129 12 346 1.6 0.0 0.00 0.00 0.00 89 1004.9
20260506172029 12 296 4.8 0.0 0.00 0.00 0.00 89 1005.0
20260506171929 12 304 3.2 0.0 0.00 0.00 0.00 89 1005.0
20260506171828 12 208 1.6 0.0 0.00 0.00 0.00 89 1004.9
20260506171728 12 309 1.6 0.0 0.00 0.00 0.00 89 1004.8
20260506171628 12 214 1.6 0.0 0.00 0.00 0.00 89 1004.7
20260506171528 12 194 0.0 0.0 0.00 0.00 0.00 89 1004.8
20260506171428 12 123 1.6 0.0 0.00 0.00 0.00 89 1004.7
20260506171328 12 173 1.6 0.0 0.00 0.00 0.00 90 1004.8
20260506171228 12 168 3.2 0.0 0.00 0.00 0.00 90 1004.7
20260506171128 12 191 3.2 0.0 0.00 0.00 0.00 90 1004.7
20260506171028 12 259 1.6 0.0 0.00 0.00 0.00 90 1004.7
20260506170928 12 173 1.6 0.0 0.00 0.00 0.00 89 1004.7
20260506170828 12 246 0.0 0.0 0.00 0.00 0.00 89 1004.7
20260506170728 13 310 0.0 0.0 0.00 0.00 0.00 89 1004.6
20260506170628 13 201 0.0 0.0 0.00 0.00 0.00 89 1004.7
20260506170528 13 228 3.2 0.0 0.00 0.00 0.00 90 1004.6
20260506170428 13 204 3.2 0.0 0.00 0.00 0.00 90 1004.7
20260506170328 13 229 3.2 0.0 0.00 0.00 0.00 90 1004.6
20260506170228 13 201 3.2 0.0 0.00 0.00 0.00 89 1004.6
20260506170127 13 224 1.6 0.0 0.00 0.00 0.00 89 1004.6
20260506170027 13 195 0.0 0.0 0.00 0.00 0.00 88 1004.6
20260506165927 13 25 0.0 0.0 0.00 0.00 0.00 88 1004.6
20260506165827 13 154 0.0 0.0 0.00 0.00 0.00 88 1004.6
20260506165727 13 157 0.0 0.0 0.00 0.00 0.00 88 1004.6
20260506165627 13 174 1.6 0.0 0.00 0.00 0.00 88 1004.6
20260506165527 13 224 0.0 0.0 0.00 0.00 0.00 88 1004.6
20260506165427 13 50 1.6 0.0 0.00 0.00 0.00 87 1004.6
20260506165327 13 322 1.6 0.0 0.00 0.00 0.00 86 1004.7
20260506165227 13 208 0.0 0.0 0.00 0.00 0.00 86 1004.7
20260506165127 13 195 1.6 0.0 0.00 0.00 0.00 86 1004.7
20260506165027 13 135 1.6 0.0 0.00 0.00 0.00 85 1004.7
20260506164927 13 208 1.6 0.0 0.00 0.00 0.00 84 1004.8
20260506164827 13 212 1.6 0.0 0.00 0.00 0.00 83 1004.8
20260506164727 13 94 1.6 0.0 0.00 0.00 0.00 82 1004.7
20260506164627 13 129 1.6 0.0 0.00 0.00 0.00 82 1004.9
20260506164526 13 103 3.2 0.0 0.00 0.00 0.00 81 1004.8
20260506164426 13 109 1.6 0.0 0.00 0.00 0.00 81 1004.8
20260506164326 13 99 3.2 0.0 0.00 0.00 0.00 81 1004.8
20260506164226 13 74 1.6 0.0 0.00 0.00 0.00 80 1004.9
20260506164126 13 53 1.6 0.0 0.00 0.00 0.00 79 1004.9
20260506164026 13 72 1.6 0.0 0.00 0.00 0.00 78 1004.9
20260506163926 13 48 1.6 0.0 0.00 0.00 0.00 78 1004.8
20260506163826 14 34 1.6 0.0 0.00 0.00 0.00 77 1004.9
20260506163726 14 101 3.2 0.0 0.00 0.00 0.00 76 1004.8
20260506163626 14 123 4.8 0.0 0.00 0.00 0.00 77 1004.8
20260506163526 14 119 1.6 0.0 0.00 0.00 0.00 78 1004.9
20260506163426 14 315 1.6 0.0 0.00 0.00 0.00 79 1004.9
20260506163326 14 189 0.0 0.0 0.00 0.00 0.00 79 1004.8
20260506163226 14 278 1.6 0.0 0.00 0.00 0.00 79 1004.8
20260506163126 14 129 1.6 0.0 0.00 0.00 0.00 79 1004.8
20260506163026 14 135 0.0 0.0 0.00 0.00 0.00 79 1004.8
20260506162926 14 197 0.0 0.0 0.00 0.00 0.00 78 1004.8
20260506162825 14 238 3.2 0.0 0.00 0.00 0.00 78 1004.8
20260506162725 14 62 1.6 0.0 0.00 0.00 0.00 80 1004.8
20260506162625 14 292 1.6 0.0 0.00 0.00 0.00 82 1004.8
20260506162525 14 297 1.6 0.0 0.00 0.00 0.00 83 1005.0
20260506162425 14 306 0.0 0.0 0.00 0.00 0.00 82 1004.9
20260506162325 14 71 1.6 0.0 0.00 0.00 0.00 82 1004.8
20260506162225 14 168 3.2 0.0 0.00 0.00 0.00 82 1004.8
20260506162125 14 88 1.6 0.0 0.00 0.00 0.00 81 1004.7
20260506162025 14 57 1.6 0.0 0.00 0.00 0.00 80 1004.8
20260506161925 14 11 0.0 0.0 0.00 0.00 0.00 81 1004.8
20260506161825 14 38 1.6 0.0 0.00 0.00 0.00 81 1004.8
20260506161725 14 37 1.6 0.0 0.00 0.00 0.00 79 1004.8
20260506161625 14 50 1.6 0.0 0.00 0.00 0.00 80 1004.8
20260506161525 14 62 0.0 0.0 0.00 0.00 0.00 80 1004.8
20260506161425 14 114 1.6 0.0 0.00 0.00 0.00 77 1004.8
20260506161325 14 193 0.0 0.0 0.00 0.00 0.00 76 1004.8
20260506161225 14 247 4.8 0.0 0.00 0.00 0.00 75 1004.7
20260506161124 14 342 3.2 0.0 0.00 0.00 0.00 74 1004.8
20260506161024 14 260 3.2 0.0 0.00 0.00 0.00 74 1004.7
20260506160924 14 256 8.0 0.0 0.00 0.00 0.00 74 1004.9
20260506160824 14 4 3.2 0.0 0.00 0.00 0.00 74 1004.8
20260506160724 14 263 4.8 0.0 0.00 0.00 0.00 74 1004.9
20260506160624 14 263 8.0 0.0 0.00 0.00 0.00 76 1004.8
20260506160524 14 230 1.6 0.0 0.00 0.00 0.00 76 1004.9
20260506160424 15 274 3.2 0.0 0.00 0.00 0.00 75 1004.9
20260506160324 15 286 1.6 0.0 0.00 0.00 0.00 74 1005.0
20260506160224 15 288 3.2 0.0 0.00 0.00 0.00 72 1004.9
20260506160124 15 258 11.3 0.0 0.00 0.00 0.00 73 1004.9
20260506160024 15 236 8.0 0.0 0.00 0.00 0.00 74 1004.9
20260506155924 15 232 4.8 0.0 0.00 0.00 0.00 72 1004.9
20260506155824 16 267 8.0 0.0 0.00 0.00 0.00 72 1004.8
20260506155724 16 260 14.5 0.0 0.00 0.00 0.00 71 1004.9
20260506155624 16 246 6.4 0.0 0.00 0.00 0.00 71 1004.8
20260506155523 16 259 9.7 0.0 0.00 0.00 0.00 71 1004.7
20260506155423 16 276 8.0 0.0 0.00 0.00 0.00 70 1004.8
20260506155323 16 283 8.0 0.0 0.00 0.00 0.00 69 1004.7
20260506155223 16 245 3.2 0.0 0.00 0.00 0.00 69 1004.7
20260506155123 16 262 3.2 0.0 0.00 0.00 0.00 68 1004.9
20260506155023 16 260 4.8 0.0 0.00 0.00 0.00 68 1004.7
20260506154923 16 59 3.2 0.0 0.00 0.00 0.00 67 1004.6
20260506154823 16 308 1.6 0.0 0.00 0.00 0.00 67 1004.7
20260506154723 16 292 3.2 0.0 0.00 0.00 0.00 68 1004.7
20260506154623 16 292 3.2 0.0 0.00 0.00 0.00 68 1004.7
20260506154523 16 289 3.2 0.0 0.00 0.00 0.00 68 1004.8
20260506154423 16 123 3.2 0.0 0.00 0.00 0.00 68 1004.6
20260506154323 16 99 3.2 0.0 0.00 0.00 0.00 68 1004.8
20260506154223 16 101 3.2 0.0 0.00 0.00 0.00 68 1004.6
20260506154123 16 115 3.2 0.0 0.00 0.00 0.00 68 1004.6
20260506154023 16 85 6.4 0.0 0.00 0.00 0.00 67 1004.6
20260506153922 16 100 6.4 0.0 0.00 0.00 0.00 67 1004.6
20260506153822 16 117 3.2 0.0 0.00 0.00 0.00 67 1004.7
20260506153722 16 39 8.0 0.0 0.00 0.00 0.00 67 1004.6
20260506153622 16 284 9.7 0.0 0.00 0.00 0.00 67 1004.6
20260506153523 16 289 4.8 0.0 0.00 0.00 0.00 66 1004.6
20260506153422 16 204 3.2 0.0 0.00 0.00 0.00 66 1004.7
20260506153322 17 248 4.8 0.0 0.00 0.00 0.00 65 1004.7
20260506153222 17 135 3.2 0.0 0.00 0.00 0.00 65 1004.6
20260506153122 17 74 4.8 0.0 0.00 0.00 0.00 65 1004.6
20260506153022 17 116 3.2 0.0 0.00 0.00 0.00 64 1004.6
20260506152922 17 119 9.7 0.0 0.00 0.00 0.00 64 1004.6
20260506152822 17 115 6.4 0.0 0.00 0.00 0.00 64 1004.6
20260506152722 17 264 4.8 0.0 0.00 0.00 0.00 64 1004.5
20260506152622 17 307 3.2 0.0 0.00 0.00 0.00 64 1004.6
20260506152522 17 305 3.2 0.0 0.00 0.00 0.00 64 1004.6
20260506152422 17 343 1.6 0.0 0.00 0.00 0.00 64 1004.7
20260506152322 17 74 1.6 0.0 0.00 0.00 0.00 63 1004.6
20260506152221 17 287 4.8 0.0 0.00 0.00 0.00 63 1004.7
20260506152121 17 275 4.8 0.0 0.00 0.00 0.00 63 1004.7
20260506152021 17 282 3.2 0.0 0.00 0.00 0.00 64 1004.7
20260506151921 17 313 3.2 0.0 0.00 0.00 0.00 63 1004.6
20260506151821 17 101 6.4 0.0 0.00 0.00 0.00 63 1004.6
20260506151721 17 273 3.2 0.0 0.00 0.00 0.00 63 1004.7
20260506151621 17 332 4.8 0.0 0.00 0.00 0.00 63 1004.7
20260506151521 17 173 3.2 0.0 0.00 0.00 0.00 63 1004.7
20260506151421 17 92 12.9 0.0 0.00 0.00 0.00 64 1004.5
20260506151321 17 329 6.4 0.0 0.00 0.00 0.00 64 1004.6
20260506151221 17 103 3.2 0.0 0.00 0.00 0.00 63 1004.5
20260506151121 17 151 6.4 0.0 0.00 0.00 0.00 63 1004.4
20260506151021 17 125 9.7 0.0 0.00 0.00 0.00 63 1004.4
20260506150921 17 42 3.2 0.0 0.00 0.00 0.00 63 1004.5
20260506150821 17 155 8.0 0.0 0.00 0.00 0.00 63 1004.4
20260506150721 17 174 6.4 0.0 0.00 0.00 0.00 63 1004.3
20260506150620 17 137 3.2 0.0 0.00 0.00 0.00 63 1004.4
20260506150520 17 117 6.4 0.0 0.00 0.00 0.00 63 1004.3
20260506150420 17 123 4.8 0.0 0.00 0.00 0.00 62 1004.4
20260506150320 17 110 9.7 0.0 0.00 0.00 0.00 62 1004.4
20260506150220 17 115 14.5 0.0 0.00 0.00 0.00 62 1004.4
20260506150120 17 136 9.7 0.0 0.00 0.00 0.00 62 1004.5
20260506150020 17 142 6.4 0.0 0.00 0.00 0.00 63 1004.4
20260506145920 17 160 6.4 0.0 0.00 0.00 0.00 63 1004.5
20260506145820 17 177 8.0 0.0 0.00 0.00 0.00 62 1004.5
20260506145720 17 248 6.4 0.0 0.00 0.00 0.00 62 1004.4
20260506145620 17 141 4.8 0.0 0.00 0.00 0.00 61 1004.5
20260506145520 17 109 12.9 0.0 0.00 0.00 0.00 62 1004.5
20260506145420 17 113 12.9 0.0 0.00 0.00 0.00 64 1004.5
20260506145320 17 286 1.6 0.0 0.00 0.00 0.00 64 1004.4
20260506145220 17 330 1.6 0.0 0.00 0.00 0.00 63 1004.5
20260506145120 17 346 1.6 0.0 0.00 0.00 0.00 64 1004.4
20260506145019 17 37 3.2 0.0 0.00 0.00 0.00 65 1004.4
20260506144919 17 288 3.2 0.0 0.00 0.00 0.00 64 1004.5
20260506144819 17 344 3.2 0.0 0.00 0.00 0.00 65 1004.5
20260506144719 17 265 6.4 0.0 0.00 0.00 0.00 65 1004.4
20260506144619 17 241 3.2 0.0 0.00 0.00 0.00 64 1004.4
20260506144519 17 156 8.0 0.0 0.00 0.00 0.00 65 1004.4
20260506144419 17 87 3.2 0.0 0.00 0.00 0.00 64 1004.5
20260506144319 17 184 1.6 0.0 0.00 0.00 0.00 64 1004.5
20260506144219 17 155 6.4 0.0 0.00 0.00 0.00 66 1004.5
20260506144119 17 139 4.8 0.0 0.00 0.00 0.00 65 1004.6
20260506144019 17 135 4.8 0.0 0.00 0.00 0.00 66 1004.5
20260506143919 17 142 3.2 0.0 0.00 0.00 0.00 67 1004.6
20260506143819 17 83 3.2 0.0 0.00 0.00 0.00 68 1004.5
20260506143719 17 46 3.2 0.0 0.00 0.00 0.00 66 1004.6
20260506143619 17 121 3.2 0.0 0.00 0.00 0.00 64 1004.6
20260506143519 17 64 1.6 0.0 0.00 0.00 0.00 63 1004.6
20260506143418 17 145 8.0 0.0 0.00 0.00 0.00 63 1004.6
20260506143318 17 105 6.4 0.0 0.00 0.00 0.00 63 1004.6
20260506143218 17 146 8.0 0.0 0.00 0.00 0.00 63 1004.7
20260506143118 17 57 8.0 0.0 0.00 0.00 0.00 64 1004.6
20260506143018 17 86 1.6 0.0 0.00 0.00 0.00 65 1004.6
20260506142918 17 286 3.2 0.0 0.00 0.00 0.00 66 1004.5
20260506142818 17 277 1.6 0.0 0.00 0.00 0.00 66 1004.6
20260506142718 17 164 3.2 0.0 0.00 0.00 0.00 66 1004.6
20260506142618 17 319 3.2 0.0 0.00 0.00 0.00 65 1004.6
20260506142518 17 190 3.2 0.0 0.00 0.00 0.00 65 1004.7
20260506142418 17 180 6.4 0.0 0.00 0.00 0.00 67 1004.5
20260506142318 17 169 1.6 0.0 0.00 0.00 0.00 66 1004.6
20260506142218 17 49 1.6 0.0 0.00 0.00 0.00 64 1004.6
20260506142118 17 125 4.8 0.0 0.00 0.00 0.00 64 1004.6
20260506142018 17 126 3.2 0.0 0.00 0.00 0.00 64 1004.5
20260506141918 17 57 6.4 0.0 0.00 0.00 0.00 64 1004.5
20260506141818 17 100 1.6 0.0 0.00 0.00 0.00 64 1004.6
20260506141717 17 161 6.4 0.0 0.00 0.00 0.00 65 1004.6
20260506141617 17 157 1.6 0.0 0.00 0.00 0.00 63 1004.5
20260506141517 17 253 11.3 0.0 0.00 0.00 0.00 62 1004.6
20260506141417 17 76 8.0 0.0 0.00 0.00 0.00 62 1004.5
20260506141317 17 139 11.3 0.0 0.00 0.00 0.00 61 1004.6
20260506141217 17 95 6.4 0.0 0.00 0.00 0.00 61 1004.5
20260506141117 17 136 14.5 0.0 0.00 0.00 0.00 60 1004.5
20260506141017 17 155 8.0 0.0 0.00 0.00 0.00 60 1004.4
20260506140917 17 128 16.1 0.0 0.00 0.00 0.00 60 1004.5
20260506140817 17 25 6.4 0.0 0.00 0.00 0.00 60 1004.4
20260506140717 17 115 12.9 0.0 0.00 0.00 0.00 60 1004.4
20260506140617 18 143 9.7 0.0 0.00 0.00 0.00 59 1004.4
20260506140517 18 110 11.3 0.0 0.00 0.00 0.00 59 1004.4
20260506140417 18 122 6.4 0.0 0.00 0.00 0.00 58 1004.4
20260506140317 18 178 4.8 0.0 0.00 0.00 0.00 57 1004.4
20260506140217 18 141 11.3 0.0 0.00 0.00 0.00 56 1004.4
20260506140116 18 115 6.4 0.0 0.00 0.00 0.00 55 1004.4
20260506140016 18 172 3.2 0.0 0.00 0.00 0.00 54 1004.4
20260506135916 18 343 4.8 0.0 0.00 0.00 0.00 52 1004.4
20260506135816 18 271 8.0 0.0 0.00 0.00 0.00 51 1004.4
20260506135716 18 267 4.8 0.0 0.00 0.00 0.00 51 1004.5
20260506135616 18 276 3.2 0.0 0.00 0.00 0.00 50 1004.4
20260506135516 18 354 4.8 0.0 0.00 0.00 0.00 51 1004.6
20260506135416 18 280 8.0 0.0 0.00 0.00 0.00 51 1004.5
20260506135316 18 129 9.7 0.0 0.00 0.00 0.00 52 1004.4
20260506135216 18 283 1.6 0.0 0.00 0.00 0.00 52 1004.4
20260506135116 18 49 4.8 0.0 0.00 0.00 0.00 51 1004.4
20260506135016 18 26 3.2 0.0 0.00 0.00 0.00 51 1004.4
20260506134916 18 10 1.6 0.0 0.00 0.00 0.00 51 1004.4
20260506134816 18 96 3.2 0.0 0.00 0.00 0.00 51 1004.5
20260506134716 18 44 3.2 0.0 0.00 0.00 0.00 50 1004.4
20260506134616 18 226 6.4 0.0 0.00 0.00 0.00 51 1004.4
20260506134516 19 231 8.0 0.0 0.00 0.00 0.00 50 1004.4
20260506134415 19 258 6.4 0.0 0.00 0.00 0.00 50 1004.4
20260506134315 19 267 9.7 0.0 0.00 0.00 0.00 50 1004.4
20260506134215 19 232 6.4 0.0 0.00 0.00 0.00 50 1004.5
20260506134115 19 189 4.8 0.0 0.00 0.00 0.00 50 1004.4
20260506134015 19 277 6.4 0.0 0.00 0.00 0.00 50 1004.5
20260506133917 19 246 3.2 0.0 0.00 0.00 0.00 51 1004.4
20260506133815 18 254 6.4 0.0 0.00 0.00 0.00 52 1004.4
20260506133715 18 9 1.6 0.0 0.00 0.00 0.00 51 1004.4
20260506133615 18 283 8.0 0.0 0.00 0.00 0.00 50 1004.3
20260506133515 18 263 6.4 0.0 0.00 0.00 0.00 51 1004.5
20260506133415 18 245 3.2 0.0 0.00 0.00 0.00 50 1004.4
20260506133315 18 282 6.4 0.0 0.00 0.00 0.00 50 1004.5
20260506133215 19 44 0.0 0.0 0.00 0.00 0.00 48 1004.5
20260506133115 19 279 3.2 0.0 0.00 0.00 0.00 49 1004.5
20260506133015 19 272 11.3 0.0 0.00 0.00 0.00 50 1004.5
20260506132914 19 4 3.2 0.0 0.00 0.00 0.00 50 1004.5
20260506132814 19 335 4.8 0.0 0.00 0.00 0.00 51 1004.5
20260506132714 19 82 4.8 0.0 0.00 0.00 0.00 52 1004.5
20260506132614 18 226 3.2 0.0 0.00 0.00 0.00 52 1004.5
20260506132514 18 283 3.2 0.0 0.00 0.00 0.00 51 1004.6
20260506132414 18 257 6.4 0.0 0.00 0.00 0.00 51 1004.6
20260506132314 18 252 8.0 0.0 0.00 0.00 0.00 51 1004.5
20260506132214 18 206 4.8 0.0 0.00 0.00 0.00 50 1004.5
20260506132114 18 279 6.4 0.0 0.00 0.00 0.00 50 1004.6
20260506132014 18 268 14.5 0.0 0.00 0.00 0.00 51 1004.5
20260506131914 18 241 6.4 0.0 0.00 0.00 0.00 52 1004.6
20260506131814 18 295 3.2 0.0 0.00 0.00 0.00 53 1004.5
20260506131714 18 147 6.4 0.0 0.00 0.00 0.00 52 1004.5
20260506131614 18 266 16.1 0.0 0.00 0.00 0.00 52 1004.5
20260506131514 18 256 8.0 0.0 0.00 0.00 0.00 51 1004.6
20260506131414 18 258 11.3 0.0 0.00 0.00 0.00 52 1004.5
20260506131314 18 232 3.2 0.0 0.00 0.00 0.00 52 1004.6
20260506131213 18 322 1.6 0.0 0.00 0.00 0.00 52 1004.6
20260506131113 18 259 6.4 0.0 0.00 0.00 0.00 51 1004.7
20260506131013 18 75 3.2 0.0 0.00 0.00 0.00 51 1004.7
20260506130913 18 298 3.2 0.0 0.00 0.00 0.00 50 1004.7
20260506130813 18 274 3.2 0.0 0.00 0.00 0.00 50 1004.6
20260506130713 18 264 3.2 0.0 0.00 0.00 0.00 52 1004.6
20260506130613 18 251 1.6 0.0 0.00 0.00 0.00 52 1004.6
20260506130513 18 287 3.2 0.0 0.00 0.00 0.00 52 1004.6
20260506130413 18 14 1.6 0.0 0.00 0.00 0.00 53 1004.6
20260506130313 18 100 3.2 0.0 0.00 0.00 0.00 52 1004.6
20260506130213 18 290 6.4 0.0 0.00 0.00 0.00 52 1004.6
20260506130113 18 272 8.0 0.0 0.00 0.00 0.00 53 1004.6
20260506130013 18 256 4.8 0.0 0.00 0.00 0.00 53 1004.7
20260506125913 18 61 1.6 0.0 0.00 0.00 0.00 53 1004.6
20260506125813 18 283 6.4 0.0 0.00 0.00 0.00 54 1004.6
20260506125713 18 237 3.2 0.0 0.00 0.00 0.00 53 1004.7
20260506125612 18 265 11.3 0.0 0.00 0.00 0.00 52 1004.5
20260506125512 18 264 3.2 0.0 0.00 0.00 0.00 51 1004.6
20260506125412 18 286 6.4 0.0 0.00 0.00 0.00 53 1004.6
20260506125312 18 296 1.6 0.0 0.00 0.00 0.00 53 1004.5
20260506125212 18 284 4.8 0.0 0.00 0.00 0.00 52 1004.6
20260506125112 18 71 4.8 0.0 0.00 0.00 0.00 51 1004.6
20260506125012 18 290 6.4 0.0 0.00 0.00 0.00 54 1004.6
20260506124912 18 277 4.8 0.0 0.00 0.00 0.00 55 1004.6
20260506124812 18 15 3.2 0.0 0.00 0.00 0.00 55 1004.7
20260506124712 18 312 6.4 0.0 0.00 0.00 0.00 55 1004.7
20260506124612 18 280 4.8 0.0 0.00 0.00 0.00 55 1004.7
20260506124512 18 250 9.7 0.0 0.00 0.00 0.00 56 1004.7
20260506124412 18 272 8.0 0.0 0.00 0.00 0.00 55 1004.5
20260506124312 18 141 20.9 0.0 0.00 0.00 0.00 55 1004.7
20260506124212 18 98 6.4 0.0 0.00 0.00 0.00 54 1004.7
20260506124112 18 131 12.9 0.0 0.00 0.00 0.00 54 1004.7
20260506124012 18 121 6.4 0.0 0.00 0.00 0.00 54 1004.6
20260506123911 18 117 9.7 0.0 0.00 0.00 0.00 54 1004.8
20260506123811 18 89 9.7 0.0 0.00 0.00 0.00 54 1004.8
20260506123711 18 111 6.4 0.0 0.00 0.00 0.00 54 1004.7
20260506123611 18 102 3.2 0.0 0.00 0.00 0.00 55 1004.7
20260506123511 18 57 6.4 0.0 0.00 0.00 0.00 55 1004.7
20260506123411 18 28 3.2 0.0 0.00 0.00 0.00 56 1004.7
20260506123311 18 254 4.8 0.0 0.00 0.00 0.00 55 1004.8
20260506123211 18 44 4.8 0.0 0.00 0.00 0.00 55 1004.8
20260506123111 18 121 4.8 0.0 0.00 0.00 0.00 55 1004.7
20260506123011 18 275 6.4 0.0 0.00 0.00 0.00 56 1004.7
20260506122911 18 99 3.2 0.0 0.00 0.00 0.00 56 1004.8
20260506122811 18 290 6.4 0.0 0.00 0.00 0.00 56 1004.8
20260506122711 18 276 11.3 0.0 0.00 0.00 0.00 55 1004.8
20260506122611 18 50 9.7 0.0 0.00 0.00 0.00 55 1004.7
20260506122511 18 102 6.4 0.0 0.00 0.00 0.00 55 1004.8
20260506122411 18 68 6.4 0.0 0.00 0.00 0.00 55 1004.7
20260506122310 18 97 8.0 0.0 0.00 0.00 0.00 55 1004.8
20260506122210 18 32 4.8 0.0 0.00 0.00 0.00 54 1004.8
20260506122110 18 276 12.9 0.0 0.00 0.00 0.00 55 1004.8
20260506122010 18 244 6.4 0.0 0.00 0.00 0.00 56 1004.7
20260506121910 18 237 6.4 0.0 0.00 0.00 0.00 57 1004.8
20260506121810 18 180 3.2 0.0 0.00 0.00 0.00 56 1004.9
20260506121710 18 223 4.8 0.0 0.00 0.00 0.00 56 1004.8
20260506121610 18 129 6.4 0.0 0.00 0.00 0.00 55 1004.8
20260506121510 18 89 4.8 0.0 0.00 0.00 0.00 54 1004.8
20260506121410 18 173 4.8 0.0 0.00 0.00 0.00 55 1004.8
20260506121310 18 128 12.9 0.0 0.00 0.00 0.00 54 1004.7
20260506121210 18 74 9.7 0.0 0.00 0.00 0.00 53 1004.8
20260506121110 18 165 9.7 0.0 0.00 0.00 0.00 53 1004.8
20260506121010 18 81 8.0 0.0 0.00 0.00 0.00 53 1004.8
20260506120910 18 120 17.7 0.0 0.00 0.00 0.00 54 1004.8
20260506120810 18 182 8.0 0.0 0.00 0.00 0.00 53 1004.8
20260506120709 18 272 8.0 0.0 0.00 0.00 0.00 53 1004.8
20260506120609 18 141 6.4 0.0 0.00 0.00 0.00 53 1004.9
20260506120509 18 10 1.6 0.0 0.00 0.00 0.00 53 1004.9
20260506120409 18 287 4.8 0.0 0.00 0.00 0.00 55 1004.9
20260506120309 18 194 3.2 0.0 0.00 0.00 0.00 55 1004.8
20260506120209 18 295 3.2 0.0 0.00 0.00 0.00 55 1004.8
20260506120109 18 100 4.8 0.0 0.00 0.00 0.00 58 1004.8
20260506120009 17 320 3.2 0.0 0.00 0.00 0.00 60 1004.9
20260506115909 17 134 3.2 0.0 0.00 0.00 0.00 59 1004.8
20260506115809 17 275 3.2 0.0 0.00 0.00 0.00 58 1004.9
20260506115709 17 127 12.9 0.0 0.00 0.00 0.00 58 1004.8
20260506115609 17 118 12.9 0.0 0.00 0.00 0.00 58 1004.8
20260506115509 17 40 3.2 0.0 0.00 0.00 0.00 59 1004.8
20260506115409 17 251 4.8 0.0 0.00 0.00 0.00 57 1004.9
20260506115309 17 317 4.8 0.0 0.00 0.00 0.00 57 1004.8
20260506115209 17 256 6.4 0.0 0.00 0.00 0.00 57 1004.9
20260506115109 17 308 16.1 0.0 0.00 0.00 0.00 58 1004.9
20260506115008 17 278 6.4 0.0 0.00 0.00 0.00 58 1004.7
20260506114908 17 35 4.8 0.0 0.00 0.00 0.00 58 1004.8
20260506114808 17 72 3.2 0.0 0.00 0.00 0.00 58 1004.8
20260506114709 17 267 6.4 0.0 0.00 0.00 0.00 58 1004.8
20260506114608 17 255 11.3 0.0 0.00 0.00 0.00 59 1004.7
20260506114508 17 297 4.8 0.0 0.00 0.00 0.00 61 1004.9
20260506114408 17 354 9.7 0.0 0.00 0.00 0.00 62 1004.9
20260506114308 17 46 3.2 0.0 0.00 0.00 0.00 62 1004.8
20260506114208 17 37 6.4 0.0 0.00 0.00 0.00 61 1004.8
20260506114108 16 0 1.6 0.0 0.00 0.00 0.00 60 1004.9
20260506114008 16 123 6.4 0.0 0.00 0.00 0.00 59 1005.0
20260506113908 17 134 9.7 0.0 0.00 0.00 0.00 58 1004.9
20260506113808 17 103 9.7 0.0 0.00 0.00 0.00 58 1005.0
20260506113708 17 129 14.5 0.0 0.00 0.00 0.00 58 1004.9
20260506113608 17 150 6.4 0.0 0.00 0.00 0.00 59 1004.9
20260506113508 17 141 12.9 0.0 0.00 0.00 0.00 59 1004.8
20260506113407 17 158 6.4 0.0 0.00 0.00 0.00 59 1004.9
20260506113307 17 76 9.7 0.0 0.00 0.00 0.00 58 1004.9
20260506113207 17 148 6.4 0.0 0.00 0.00 0.00 57 1004.9
20260506113107 17 87 9.7 0.0 0.00 0.00 0.00 57 1004.9
20260506113007 17 137 11.3 0.0 0.00 0.00 0.00 58 1004.9
20260506112907 17 307 8.0 0.0 0.00 0.00 0.00 57 1004.8
20260506112807 17 1 6.4 0.0 0.00 0.00 0.00 57 1004.8
20260506112707 17 76 4.8 0.0 0.00 0.00 0.00 57 1004.8
20260506112607 17 255 6.4 0.0 0.00 0.00 0.00 57 1004.8
20260506112507 17 148 8.0 0.0 0.00 0.00 0.00 57 1004.8
20260506112407 17 123 9.7 0.0 0.00 0.00 0.00 56 1004.9
20260506112307 17 93 6.4 0.0 0.00 0.00 0.00 57 1004.9
20260506112207 17 91 6.4 0.0 0.00 0.00 0.00 56 1004.8
20260506112107 18 275 3.2 0.0 0.00 0.00 0.00 55 1004.8
20260506112007 18 260 19.3 0.0 0.00 0.00 0.00 55 1004.8
20260506111907 18 337 4.8 0.0 0.00 0.00 0.00 56 1004.9
20260506111806 18 258 12.9 0.0 0.00 0.00 0.00 55 1004.8
20260506111706 18 262 9.7 0.0 0.00 0.00 0.00 54 1004.8
20260506111606 18 277 14.5 0.0 0.00 0.00 0.00 56 1004.7
20260506111506 18 8 3.2 4.8 0.00 0.00 0.00 53 1004.9
20260506111406 18 308 3.2 0.0 0.00 0.00 0.00 54 1004.8
20260506111306 18 286 8.0 0.0 0.00 0.00 0.00 55 1004.8
20260506111206 18 271 8.0 0.0 0.00 0.00 0.00 55 1004.9
20260506111106 18 222 4.8 0.0 0.00 0.00 0.00 54 1004.9
20260506111006 18 295 4.8 4.8 0.00 0.00 0.00 53 1004.9
20260506110906 18 295 4.8 4.8 0.00 0.00 0.00 55 1004.9
20260506110806 18 105 4.8 0.0 0.00 0.00 0.00 55 1004.8
20260506110706 18 279 4.8 0.0 0.00 0.00 0.00 55 1004.8
20260506110606 18 263 6.4 0.0 0.00 0.00 0.00 55 1004.8
20260506110506 18 269 8.0 0.0 0.00 0.00 0.00 55 1004.8
20260506110406 18 278 8.0 0.0 0.00 0.00 0.00 56 1004.9
20260506110306 18 148 8.0 0.0 0.00 0.00 0.00 57 1004.9
20260506110206 18 250 6.4 0.0 0.00 0.00 0.00 59 1005.0
20260506110105 17 276 4.8 0.0 0.00 0.00 0.00 60 1004.9
20260506110005 17 136 4.8 0.0 0.00 0.00 0.00 61 1005.0
20260506105905 17 320 4.8 0.0 0.00 0.00 0.00 60 1005.0
20260506105805 17 309 6.4 0.0 0.00 0.00 0.00 59 1005.0
20260506105705 17 278 6.4 0.0 0.00 0.00 0.00 59 1005.0
20260506105605 17 269 6.4 0.0 0.00 0.00 0.00 58 1004.9
20260506105505 17 268 6.4 0.0 0.00 0.00 0.00 57 1005.0
20260506105405 17 271 8.0 0.0 0.00 0.00 0.00 57 1005.0
20260506105305 17 223 3.2 0.0 0.00 0.00 0.00 57 1005.0
20260506105205 17 268 9.7 0.0 0.00 0.00 0.00 57 1005.0
20260506105105 17 279 9.7 0.0 0.00 0.00 0.00 58 1005.1
20260506105005 17 168 4.8 4.8 0.00 0.00 0.00 59 1005.0
20260506104905 17 280 6.4 0.0 0.00 0.00 0.00 59 1005.1
20260506104805 17 168 4.8 0.0 0.00 0.00 0.00 59 1005.2
20260506104705 17 288 8.0 0.0 0.00 0.00 0.00 60 1005.0
20260506104605 17 33 4.8 0.0 0.00 0.00 0.00 60 1005.0
20260506104504 17 110 9.7 0.0 0.00 0.00 0.00 60 1005.0
20260506104404 17 73 3.2 0.0 0.00 0.00 0.00 59 1005.1
20260506104304 17 261 3.2 0.0 0.00 0.00 0.00 60 1005.0
20260506104204 17 114 6.4 0.0 0.00 0.00 0.00 61 1005.0
20260506104104 17 294 3.2 0.0 0.00 0.00 0.00 62 1005.0
20260506104004 17 74 3.2 0.0 0.00 0.00 0.00 63 1005.0
20260506103904 17 287 6.4 0.0 0.00 0.00 0.00 64 1005.0
20260506103804 17 91 3.2 0.0 0.00 0.00 0.00 63 1005.1
20260506103704 17 337 4.8 0.0 0.00 0.00 0.00 63 1005.0
20260506103604 17 83 6.4 0.0 0.00 0.00 0.00 62 1005.1
20260506103504 17 285 4.8 0.0 0.00 0.00 0.00 63 1005.0
20260506103404 17 262 1.6 0.0 0.00 0.00 0.00 64 1005.1
20260506103304 16 254 3.2 0.0 0.00 0.00 0.00 67 1005.1
20260506103204 16 343 3.2 0.0 0.00 0.00 0.00 67 1005.0
20260506103104 16 277 3.2 0.0 0.00 0.00 0.00 65 1005.0
20260506103004 16 181 3.2 0.0 0.00 0.00 0.00 65 1005.2
20260506102903 16 295 1.6 0.0 0.00 0.00 0.00 65 1005.1
20260506102803 16 245 9.7 0.0 0.00 0.00 0.00 64 1005.1
20260506102703 16 271 6.4 0.0 0.00 0.00 0.00 65 1005.1
20260506102603 16 240 6.4 0.0 0.00 0.00 0.00 66 1005.2
20260506102503 16 351 1.6 0.0 0.00 0.00 0.00 66 1005.1
20260506102403 16 280 6.4 0.0 0.00 0.00 0.00 65 1005.2
20260506102305 16 254 9.7 0.0 0.00 0.00 0.00 64 1005.1
20260506102203 16 275 8.0 0.0 0.00 0.00 0.00 64 1005.1
20260506102103 16 266 9.7 0.0 0.00 0.00 0.00 64 1005.2
20260506102003 16 292 4.8 0.0 0.00 0.00 0.00 65 1005.2
20260506101903 16 350 3.2 0.0 0.00 0.00 0.00 67 1005.2
20260506101803 16 74 3.2 0.0 0.00 0.00 0.00 67 1005.2
20260506101703 16 274 8.0 0.0 0.00 0.00 0.00 65 1005.3
20260506101603 16 93 11.3 0.0 0.00 0.00 0.00 66 1005.2
20260506101503 16 92 9.7 0.0 0.00 0.00 0.00 65 1005.3
20260506101403 16 145 11.3 0.0 0.00 0.00 0.00 66 1005.2
20260506101302 16 127 9.7 0.0 0.00 0.00 0.00 66 1005.3
20260506101202 16 113 3.2 0.0 0.00 0.00 0.00 65 1005.3
20260506101102 16 279 8.0 0.0 0.00 0.00 0.00 66 1005.2
20260506101002 16 275 8.0 0.0 0.00 0.00 0.00 66 1005.3
20260506100902 16 268 6.4 0.0 0.00 0.00 0.00 65 1005.3
20260506100802 16 280 9.7 0.0 0.00 0.00 0.00 63 1005.3
20260506100702 16 257 9.7 0.0 0.00 0.00 0.00 64 1005.4
20260506100602 16 230 8.0 0.0 0.00 0.00 0.00 64 1005.4
20260506100502 16 214 3.2 0.0 0.00 0.00 0.00 63 1005.5
20260506100402 16 60 1.6 0.0 0.00 0.00 0.00 63 1005.5
20260506100302 16 106 6.4 0.0 0.00 0.00 0.00 64 1005.5
20260506100202 16 61 4.8 0.0 0.00 0.00 0.00 64 1005.4
20260506100002 16 275 8.0 0.0 0.00 0.00 0.00 64 1005.3
20260506095902 16 359 6.4 0.0 0.00 0.00 0.00 64 1005.5
20260506095802 16 46 8.0 0.0 0.00 0.00 0.00 65 1005.4
20260506095702 16 273 16.1 0.0 0.00 0.00 0.00 67 1005.3
20260506095601 16 233 1.6 0.0 0.00 0.00 0.00 66 1005.4
20260506095501 16 127 11.3 0.0 0.00 0.00 0.00 67 1005.3
20260506095401 16 182 4.8 0.0 0.00 0.00 0.00 68 1005.2
20260506095305 16 150 3.2 0.0 0.00 0.00 0.00 68 1005.4
20260506095201 16 135 12.9 0.0 0.00 0.00 0.00 68 1005.3
20260506095101 16 272 4.8 0.0 0.00 0.00 0.00 67 1005.2
20260506095002 16 257 17.7 0.0 0.00 0.00 0.00 69 1005.4
20260506094901 16 326 4.8 0.0 0.00 0.00 0.00 70 1005.3
20260506094801 16 285 6.4 0.0 0.00 0.00 0.00 70 1005.3
20260506094701 16 133 6.4 0.0 0.00 0.00 0.00 70 1005.2
20260506094601 16 136 1.6 0.0 0.00 0.00 0.00 69 1005.4
20260506094501 16 323 4.8 0.0 0.00 0.00 0.00 68 1005.2
20260506094401 16 116 12.9 0.0 0.00 0.00 0.00 68 1005.2
20260506094301 16 89 6.4 0.0 0.00 0.00 0.00 67 1005.3
20260506094201 16 217 9.7 0.0 0.00 0.00 0.00 66 1005.3
20260506094101 16 258 6.4 4.8 0.00 0.00 0.00 67 1005.1
20260506094000 16 275 9.7 0.0 0.00 0.00 0.00 67 1005.3
20260506093900 16 123 1.6 0.0 0.00 0.00 0.00 67 1005.3
20260506093800 16 281 6.4 0.0 0.00 0.00 0.00 67 1005.3
20260506093700 16 283 3.2 0.0 0.00 0.00 0.00 65 1005.4
20260506093600 16 259 9.7 0.0 0.00 0.00 0.00 63 1005.3
20260506093500 16 267 12.9 0.0 0.00 0.00 0.00 64 1005.4
20260506093400 16 277 9.7 0.0 0.00 0.00 0.00 65 1005.2
20260506093300 16 15 1.6 0.0 0.00 0.00 0.00 66 1005.3
20260506093200 16 277 9.7 0.0 0.00 0.00 0.00 66 1005.3
20260506093100 16 354 4.8 0.0 0.00 0.00 0.00 66 1005.1
20260506093000 16 307 6.4 0.0 0.00 0.00 0.00 67 1005.3
20260506092900 16 255 3.2 0.0 0.00 0.00 0.00 68 1005.3
20260506092800 16 266 3.2 0.0 0.00 0.00 0.00 69 1005.2
20260506092700 16 77 3.2 0.0 0.00 0.00 0.00 69 1005.2
20260506092600 16 247 3.2 0.0 0.00 0.00 0.00 69 1005.2
20260506092500 16 223 1.6 0.0 0.00 0.00 0.00 67 1005.2
20260506092400 16 267 9.7 0.0 0.00 0.00 0.00 66 1005.3
20260506092259 16 278 11.3 0.0 0.00 0.00 0.00 67 1005.2
20260506092159 16 274 19.3 0.0 0.00 0.00 0.00 68 1005.2
20260506092059 16 76 4.8 0.0 0.00 0.00 0.00 69 1005.2
20260506091959 16 282 17.7 0.0 0.00 0.00 0.00 70 1005.2
20260506091859 16 307 4.8 0.0 0.00 0.00 0.00 71 1005.2
20260506091759 16 303 4.8 0.0 0.00 0.00 0.00 69 1005.3
20260506091659 16 141 6.4 0.0 0.00 0.00 0.00 68 1005.3
20260506091559 16 99 9.7 0.0 0.00 0.00 0.00 68 1005.2
20260506091459 16 103 6.4 0.0 0.00 0.00 0.00 69 1005.2
20260506091359 16 213 6.4 0.0 0.00 0.00 0.00 68 1005.1
20260506091259 16 236 3.2 0.0 0.00 0.00 0.00 68 1005.1
20260506091159 16 11 4.8 0.0 0.00 0.00 0.00 68 1005.2
20260506091059 16 103 8.0 0.0 0.00 0.00 0.00 69 1005.2
20260506090959 16 353 6.4 0.0 0.00 0.00 0.00 69 1005.0
20260506090859 16 139 8.0 0.0 0.00 0.00 0.00 68 1005.1
20260506090758 16 0 4.8 0.0 0.00 0.00 0.00 66 1005.1
20260506090658 16 300 8.0 0.0 0.00 0.00 0.00 68 1005.2
20260506090558 16 243 4.8 0.0 0.00 0.00 0.00 67 1005.2
20260506090458 16 266 4.8 0.0 0.00 0.00 0.00 68 1005.1
20260506090358 17 326 4.8 0.0 0.00 0.00 0.00 69 1005.2
20260506090258 16 294 3.2 0.0 0.00 0.00 0.00 71 1005.2
20260506090158 16 116 4.8 0.0 0.00 0.00 0.00 70 1005.1
20260506090058 16 108 3.2 0.0 0.00 0.00 0.00 69 1005.1
20260506085958 16 30 3.2 0.0 0.00 0.00 0.00 70 1005.2
20260506085858 16 308 6.4 0.0 0.00 0.00 0.00 70 1005.2
20260506085758 16 184 6.4 0.0 0.00 0.00 0.00 68 1005.2
20260506085658 17 267 11.3 0.0 0.00 0.00 0.00 68 1005.2
20260506085558 17 266 16.1 0.0 0.00 0.00 0.00 70 1005.3
20260506085458 17 310 6.4 0.0 0.00 0.00 0.00 71 1005.0
20260506085358 16 82 4.8 0.0 0.00 0.00 0.00 71 1005.1
20260506085258 16 206 8.0 0.0 0.00 0.00 0.00 70 1005.1
20260506085158 16 160 6.4 0.0 0.00 0.00 0.00 70 1005.1
20260506085058 16 136 3.2 4.8 0.00 0.00 0.00 70 1005.0
20260506084957 16 322 6.4 0.0 0.00 0.00 0.00 71 1004.9
20260506084857 16 282 4.8 0.0 0.00 0.00 0.00 71 1005.0
20260506084757 16 301 8.0 0.0 0.00 0.00 0.00 71 1004.9
20260506084657 16 286 4.8 0.0 0.00 0.00 0.00 71 1005.0
20260506084557 16 89 1.6 0.0 0.00 0.00 0.00 70 1004.9
20260506084457 16 294 8.0 0.0 0.00 0.00 0.00 70 1005.0
20260506084357 16 277 9.7 0.0 0.00 0.00 0.00 71 1005.0
20260506084257 16 97 6.4 0.0 0.00 0.00 0.00 74 1005.1
20260506084157 16 309 4.8 0.0 0.00 0.00 0.00 73 1005.0
20260506084057 16 264 3.2 0.0 0.00 0.00 0.00 72 1005.0
20260506083957 16 285 4.8 0.0 0.00 0.00 0.00 74 1005.0
20260506083857 16 278 8.0 0.0 0.00 0.00 0.00 74 1004.9
20260506083757 16 183 1.6 0.0 0.00 0.00 0.00 74 1005.0
20260506083657 16 351 3.2 0.0 0.00 0.00 0.00 74 1005.1
20260506083557 16 140 3.2 0.0 0.00 0.00 0.00 74 1005.1
20260506083456 16 35 6.4 0.0 0.00 0.00 0.00 74 1005.0
20260506083356 16 268 6.4 0.0 0.00 0.00 0.00 73 1005.0
20260506083256 16 276 4.8 0.0 0.00 0.00 0.00 73 1004.9
20260506083156 16 51 3.2 0.0 0.00 0.00 0.00 72 1005.0
20260506083056 15 287 8.0 4.8 0.00 0.00 0.00 76 1005.1
20260506082956 16 335 8.0 0.0 0.00 0.00 0.00 75 1005.0
20260506082856 15 139 4.8 0.0 0.00 0.00 0.00 77 1005.0
20260506082756 15 258 4.8 4.8 0.00 0.00 0.00 76 1005.1
20260506082656 15 266 4.8 0.0 0.00 0.00 0.00 77 1005.0
20260506082556 15 180 1.6 0.0 0.00 0.00 0.00 76 1005.1
20260506082456 15 322 3.2 0.0 0.00 0.00 0.00 77 1005.0
20260506082356 15 277 8.0 0.0 0.00 0.00 0.00 76 1004.9
20260506082256 15 276 4.8 0.0 0.00 0.00 0.00 76 1005.0
20260506082156 15 273 4.8 0.0 0.00 0.00 0.00 77 1004.9
20260506082056 15 186 8.0 0.0 0.00 0.00 0.00 77 1004.9
20260506081956 15 71 4.8 0.0 0.00 0.00 0.00 77 1004.9
20260506081856 15 250 4.8 0.0 0.00 0.00 0.00 77 1005.0
20260506081755 15 280 6.4 0.0 0.00 0.00 0.00 78 1005.0
20260506081655 15 298 6.4 0.0 0.00 0.00 0.00 77 1004.9
20260506081555 15 144 4.8 0.0 0.00 0.00 0.00 76 1005.0
20260506081455 15 289 8.0 0.0 0.00 0.00 0.00 76 1004.9
20260506081355 15 352 4.8 0.0 0.00 0.00 0.00 76 1005.0
20260506081255 15 67 4.8 0.0 0.00 0.00 0.00 75 1005.1
20260506081155 15 279 9.7 0.0 0.00 0.00 0.00 76 1005.1
20260506081055 15 277 6.4 0.0 0.00 0.00 0.00 76 1005.0
20260506080955 15 279 9.7 4.8 0.00 0.00 0.00 76 1004.9
20260506080855 15 128 8.0 0.0 0.00 0.00 0.00 76 1004.9
20260506080755 15 302 8.0 0.0 0.00 0.00 0.00 76 1005.0
20260506080655 15 323 6.4 0.0 0.00 0.00 0.00 76 1004.9
20260506080555 15 118 4.8 0.0 0.00 0.00 0.00 76 1005.0
20260506080455 15 150 8.0 0.0 0.00 0.00 0.00 77 1004.9
20260506080355 15 89 9.7 0.0 0.00 0.00 0.00 78 1004.9
20260506080255 15 7 3.2 0.0 0.00 0.00 0.00 78 1005.1
20260506080154 15 296 8.0 0.0 0.00 0.00 0.00 79 1005.0
20260506073453 13 41 4.8 0.0 0.00 0.00 0.00 84 1004.9
20260506073353 13 46 3.2 0.0 0.00 0.00 0.00 84 1004.9
20260506073253 13 147 1.6 0.0 0.00 0.00 0.00 83 1004.9
20260506073153 13 225 3.2 0.0 0.00 0.00 0.00 84 1005.0
20260506073053 13 291 4.8 0.0 0.00 0.00 0.00 84 1005.0
20260506072953 13 317 4.8 0.0 0.00 0.00 0.00 84 1005.0
20260506072853 13 252 6.4 0.0 0.00 0.00 0.00 84 1005.0
20260506072752 13 307 3.2 0.0 0.00 0.00 0.00 84 1005.1
20260506072652 13 296 4.8 0.0 0.00 0.00 0.00 84 1005.1
20260506072552 13 129 3.2 4.8 0.00 0.00 0.00 83 1004.9
20260506072452 13 0 3.2 0.0 0.00 0.00 0.00 83 1005.0
20260506072352 13 251 6.4 0.0 0.00 0.00 0.00 83 1005.0
20260506072252 13 290 4.8 0.0 0.00 0.00 0.00 83 1005.0
20260506072152 13 194 0.0 0.0 0.00 0.00 0.00 84 1005.0
20260506072052 13 278 6.4 0.0 0.00 0.00 0.00 85 1005.0
20260506071952 13 356 1.6 0.0 0.00 0.00 0.00 85 1005.0
20260506071852 13 45 3.2 0.0 0.00 0.00 0.00 85 1005.0
20260506071752 13 124 3.2 0.0 0.00 0.00 0.00 84 1005.0
20260506071652 13 21 3.2 0.0 0.00 0.00 0.00 85 1005.1
20260506071552 13 287 4.8 0.0 0.00 0.00 0.00 85 1005.0
20260506071452 13 12 3.2 0.0 0.00 0.00 0.00 84 1005.0
20260506071352 13 123 3.2 0.0 0.00 0.00 0.00 84 1005.0
20260506071251 13 80 6.4 0.0 0.00 0.00 0.00 85 1005.1
20260506071151 13 166 3.2 0.0 0.00 0.00 0.00 86 1005.1
20260506071051 13 326 3.2 0.0 0.00 0.00 0.00 87 1005.0
20260506070951 13 11 1.6 0.0 0.00 0.00 0.00 87 1005.0
20260506070851 13 227 1.6 0.0 0.00 0.00 0.00 87 1005.0
20260506070751 13 121 3.2 0.0 0.00 0.00 0.00 87 1005.1
20260506070651 13 159 3.2 0.0 0.00 0.00 0.00 87 1005.0
20260506070551 13 78 1.6 0.0 0.00 0.00 0.00 86 1005.0
20260506070451 13 282 1.6 0.0 0.00 0.00 0.00 86 1005.1
20260506070351 13 312 3.2 0.0 0.00 0.00 0.00 86 1005.1
20260506070251 13 320 3.2 0.0 0.00 0.00 0.00 86 1005.1
20260506070151 13 80 1.6 0.0 0.00 0.00 0.00 86 1005.1
20260506062449 13 112 3.2 0.0 0.00 0.00 0.00 87 1005.1